GFSWCAN_sfc_wetblb_051.txt.gz
Wetbulb
52.98 52.12 51.51 51.47 51.28 51.09 50.27 49.48 48.91 48.50 47.99 47.99 47.88 47.29 46.70 46.01 44.49 39.20 35.56 35.76 31.22 27.95 28.10 30.63 31.37 25.87 26.71 25.24 25.46 27.78 29.41 30.73 31.57 30.32 29.35 27.04 26.34 25.47 23.84 25.54 26.07 27.50 25.45 25.75 27.62 26.51 20.10 33.75 34.81 31.89 33.48 35.98 36.86 37.87
52.33 51.75 51.22 51.23 51.23 50.98 50.60 49.40 48.81 48.36 48.00 47.93 47.78 47.15 46.40 45.70 44.71 40.17 33.70 37.22 35.76 30.65 29.92 32.38 32.45 32.78 32.31 30.77 27.62 26.33 27.54 32.24 30.36 33.13 32.28 30.41 28.04 29.00 23.47 22.28 27.40 25.68 29.55 27.54 28.25 27.24 32.96 34.54 34.97 35.94 35.42 34.62 35.61 36.72
51.80 51.16 51.00 51.18 51.09 50.93 50.65 49.69 48.87 48.54 48.00 47.69 47.85 47.24 46.32 45.60 44.49 40.35 34.68 34.28 32.48 29.47 28.70 29.47 28.54 33.04 35.13 34.05 34.73 26.20 27.65 29.64 30.42 31.11 31.68 33.22 27.87 30.48 23.59 24.47 24.59 27.64 31.17 29.18 30.10 30.85 29.25 31.66 34.70 33.80 33.04 33.03 35.78 38.97
51.09 50.75 50.90 50.93 50.91 50.86 50.58 50.19 49.03 48.67 47.99 47.79 47.80 46.75 46.29 45.01 43.95 40.27 34.65 33.94 32.09 29.92 25.81 27.12 33.64 31.10 34.58 35.02 34.78 33.54 32.02 32.00 31.69 29.68 26.73 27.24 27.08 29.12 28.52 28.79 27.74 29.87 29.54 26.15 26.61 29.76 29.89 31.02 33.15 32.66 33.50 33.61 36.43 37.43
50.49 50.61 50.68 50.70 50.66 50.55 50.49 50.58 49.59 48.70 47.86 47.75 47.67 46.47 45.23 44.34 43.15 38.78 35.64 35.01 34.67 31.51 26.88 27.05 30.46 32.44 33.16 34.35 33.99 33.63 32.60 30.21 27.53 24.91 24.99 25.27 26.40 25.74 25.18 25.46 23.64 27.23 24.55 22.36 21.88 28.62 28.91 29.63 32.45 33.82 31.59 33.09 36.02 36.54
50.29 50.14 50.12 50.25 50.10 50.09 50.33 50.21 49.54 48.76 47.62 47.58 46.71 46.09 45.00 43.94 41.04 35.35 31.43 34.80 36.61 33.03 27.84 23.53 29.84 28.78 30.75 32.08 32.67 31.76 31.65 30.40 28.97 27.43 27.25 29.14 30.51 28.84 24.81 22.55 27.31 28.79 29.57 30.31 30.63 34.34 34.35 34.38 33.52 33.10 34.04 35.98 36.26 37.60
49.82 49.68 49.71 49.62 49.75 50.11 50.09 49.80 49.47 48.38 47.51 47.26 46.09 45.64 44.80 43.12 37.95 32.45 31.44 33.92 38.39 33.13 28.48 21.36 20.75 29.48 31.46 31.14 31.41 31.11 31.35 29.26 28.46 27.01 27.25 26.37 27.35 30.01 28.27 24.36 29.65 32.69 34.60 35.22 35.59 33.89 31.97 34.43 33.53 36.03 36.95 37.28 38.49 37.59
49.55 49.37 49.26 49.39 49.76 49.93 49.76 49.53 48.81 47.84 47.31 46.10 46.00 45.83 44.71 43.47 39.86 34.38 36.84 39.89 35.16 29.37 27.06 13.36 14.65 24.24 31.03 28.07 30.91 33.47 29.18 29.36 28.43 26.90 27.29 26.87 28.70 28.50 24.43 28.76 32.68 35.15 35.91 34.44 34.18 34.34 33.77 34.51 36.17 36.40 37.48 37.49 36.08 35.73
48.97 48.85 49.08 49.38 49.59 49.67 49.44 48.78 48.03 47.45 46.00 45.99 45.23 43.88 37.01 33.65 30.49 32.14 40.89 39.66 33.92 29.75 19.66 17.74 11.31 12.09 29.06 27.55 30.21 34.42 29.41 24.26 28.24 25.97 26.76 28.38 26.13 22.99 29.76 31.56 32.89 34.72 33.59 32.93 33.47 32.99 33.09 32.19 33.50 35.41 34.51 35.16 34.35 36.59
48.45 48.65 48.94 49.07 49.13 49.20 48.74 48.11 47.63 46.57 45.99 44.97 37.62 32.44 30.05 32.67 39.47 38.71 32.33 29.57 28.02 27.77 26.53 18.12 27.65 17.65 25.18 25.13 26.12 29.15 28.59 27.13 16.51 25.93 28.77 26.35 25.17 29.58 30.77 32.32 34.73 35.22 34.57 33.82 29.59 28.79 31.02 30.90 32.27 33.04 33.60 33.98 35.96 36.74
48.28 48.52 48.67 48.62 48.66 48.39 47.92 47.56 46.83 46.31 43.43 35.32 31.35 30.26 33.41 38.73 32.80 28.57 21.93 21.70 23.70 19.66 26.13 22.21 20.58 18.56 27.92 19.21 21.10 28.48 26.25 24.24 14.60 21.92 24.61 19.46 21.90 27.54 31.31 32.52 34.15 34.43 33.58 32.49 31.72 31.29 32.26 32.83 31.62 31.82 32.24 34.09 33.73 34.65
48.19 48.30 48.30 48.42 48.17 47.78 47.40 46.78 46.68 39.35 36.68 35.74 34.71 35.20 32.20 28.46 23.06 18.52 11.78 19.41 20.36 18.19 24.94 22.90 24.83 26.57 26.64 29.04 29.03 30.99 25.23 27.14 14.31 25.37 20.95 17.46 23.00 27.80 29.56 30.81 32.26 31.96 31.48 31.17 30.83 29.62 31.10 31.87 32.25 32.78 32.66 32.42 31.31 32.79
48.02 48.10 48.28 48.08 47.74 47.42 46.66 46.74 43.30 41.87 38.90 33.74 31.03 26.34 27.18 21.15 18.17 11.96 10.84 13.99 14.90 21.22 25.29 23.04 17.89 24.75 27.22 28.06 25.84 27.97 25.59 22.48 29.59 24.99 17.24 19.62 24.57 27.77 27.84 30.59 30.72 29.60 30.00 30.16 29.73 29.00 30.69 31.57 32.25 31.72 31.63 31.81 30.38 29.93
47.92 47.91 47.80 47.52 47.02 46.51 46.52 44.80 42.96 38.90 33.55 28.92 25.74 19.82 20.70 15.90 16.21 16.30 17.66 17.20 21.43 25.87 25.55 24.93 20.75 25.37 26.96 24.71 26.53 23.58 25.38 30.58 25.34 16.87 14.33 15.88 22.55 27.12 28.05 29.82 29.20 28.25 28.32 26.90 26.74 27.52 26.99 28.79 29.71 30.55 30.20 29.52 27.93 26.85
47.53 47.36 46.99 46.37 46.08 46.17 45.20 43.35 40.63 34.20 30.52 25.87 26.74 20.96 19.06 22.17 21.15 16.31 17.60 21.63 26.69 28.16 24.84 23.48 19.90 24.08 20.17 25.11 27.00 25.96 23.31 20.59 22.09 14.95 15.90 19.66 25.21 26.56 27.04 27.64 26.29 25.70 25.88 26.34 27.37 26.68 25.14 25.98 29.13 29.65 29.85 29.46 28.92 26.89
47.11 46.28 44.45 46.31 46.17 45.44 43.34 39.85 35.29 32.01 26.24 24.69 21.43 21.18 22.36 20.57 16.70 24.39 23.88 17.84 26.03 26.32 24.48 21.92 15.32 13.09 20.64 24.94 22.46 20.44 10.58 9.51 16.31 14.89 21.11 21.55 25.86 25.21 25.30 26.41 26.03 25.57 25.80 26.52 27.05 28.12 28.52 27.11 28.14 30.34 30.25 29.94 29.38 27.70
45.32 42.31 45.82 46.00 44.73 42.24 41.21 33.37 31.09 24.32 23.97 22.14 19.80 25.92 23.18 21.31 21.43 20.72 23.38 24.38 25.68 23.74 17.72 15.31 10.89 13.59 22.64 20.71 19.12 23.17 17.49 19.34 19.52 19.38 20.32 23.66 24.29 24.19 24.71 25.46 26.14 26.44 25.98 25.47 25.29 26.24 26.64 28.61 29.33 30.86 28.69 29.27 29.55 29.05
41.74 44.14 45.27 43.66 40.47 38.18 33.08 30.56 25.99 23.99 21.21 21.10 22.53 21.08 25.27 23.89 23.67 23.55 24.49 25.40 25.01 22.13 19.63 12.96 16.16 15.41 13.00 9.53 12.79 18.76 19.04 16.24 22.71 25.57 24.86 26.33 25.11 24.47 25.10 24.36 25.51 25.22 24.41 22.22 20.73 21.14 23.04 27.39 28.06 28.14 28.87 29.98 28.72 27.83
42.52 43.02 43.44 42.61 38.42 32.77 29.02 28.11 27.44 21.93 22.47 23.87 25.31 23.05 23.73 24.88 24.42 24.42 25.00 25.80 25.76 25.24 20.48 15.16 13.35 14.29 16.19 17.71 15.78 12.13 13.90 17.70 20.88 22.53 22.82 24.07 23.80 23.55 24.04 22.65 21.90 20.91 20.52 18.82 21.32 22.94 24.42 25.47 27.62 28.81 29.23 29.77 27.85 27.59
44.33 43.45 43.19 41.28 37.59 29.44 25.57 25.62 27.52 23.69 20.44 22.24 22.65 21.70 18.40 19.11 19.22 20.72 21.68 24.74 23.69 15.12 17.64 19.18 17.87 19.52 20.28 20.83 20.27 20.62 21.17 22.31 21.19 21.33 23.18 23.18 22.68 18.89 21.00 21.31 22.56 22.26 22.41 22.77 22.40 26.27 24.61 25.00 26.93 27.64 29.09 28.61 27.06 26.75
42.02 40.67 40.12 36.39 31.30 29.66 27.14 22.93 24.56 21.91 22.44 18.38 15.95 12.69 10.25 10.66 13.90 20.88 13.99 20.06 21.70 15.23 17.10 21.06 21.52 23.59 24.12 23.45 22.96 23.85 24.13 23.17 21.29 21.28 23.04 23.23 23.84 20.83 23.34 23.71 22.04 23.04 22.45 25.45 24.73 23.43 24.64 23.28 24.77 26.52 27.89 28.90 29.01 28.08
39.39 40.60 34.08 34.78 29.85 26.88 25.54 25.73 24.16 23.63 18.13 19.22 12.45 16.52 6.03 6.83 6.58 17.44 18.22 23.18 24.49 19.02 20.18 19.66 19.37 20.73 22.77 23.03 22.93 20.98 23.31 22.76 22.12 22.14 26.66 26.36 23.61 21.91 21.56 21.94 18.33 22.08 22.55 24.38 21.30 21.53 22.66 23.79 24.20 25.82 26.68 27.67 28.92 26.74
39.05 35.86 30.19 27.88 23.61 23.24 24.44 26.35 20.19 17.41 18.33 15.74 9.74 8.03 3.83 5.26 4.18 17.24 17.45 17.34 18.68 19.36 19.73 19.54 16.65 14.93 18.69 19.54 15.89 18.44 17.97 18.42 19.85 20.99 21.95 22.63 23.27 23.03 22.58 22.70 22.60 21.35 21.95 22.56 20.83 21.07 22.08 25.88 25.37 25.60 26.00 27.07 26.72 25.25
35.82 29.01 24.30 19.62 21.98 21.86 23.89 21.25 20.75 17.17 14.69 12.39 13.84 12.27 6.42 2.02 10.74 11.70 12.58 9.84 15.46 17.44 15.93 12.76 13.22 15.77 15.58 14.70 15.09 19.54 20.60 17.38 18.83 18.17 21.11 20.73 21.38 23.78 23.94 24.82 22.81 21.81 21.43 22.32 21.91 21.89 22.20 21.98 24.91 23.33 23.91 22.89 23.55 24.56
24.88 21.51 21.10 18.98 18.65 17.45 19.95 17.30 11.77 15.02 16.81 16.51 14.90 13.39 6.94 8.50 3.07 6.49 9.60 10.69 6.23 12.26 13.35 12.35 12.30 15.39 17.35 17.58 16.92 20.06 20.42 18.58 19.44 21.67 21.30 21.25 22.30 22.31 23.32 21.32 21.19 21.72 20.19 17.25 17.77 20.31 19.81 15.59 17.87 19.18 19.62 19.46 21.00 22.22
17.59 20.15 17.41 18.91 15.19 15.52 15.08 13.29 11.38 10.86 16.15 12.52 10.40 2.49 -1.01 1.89 7.25 8.78 9.95 10.32 13.05 12.78 14.14 15.79 18.33 16.11 16.80 19.02 20.04 22.49 24.69 20.09 17.39 17.28 23.84 20.26 18.87 18.52 18.97 19.22 20.17 21.87 16.59 15.13 15.59 18.62 19.73 18.28 19.03 18.86 20.12 20.39 24.45 25.37
16.37 19.10 22.17 24.33 21.18 19.30 16.23 14.45 13.82 10.51 5.51 9.33 4.86 3.03 1.72 3.14 3.74 12.01 13.59 12.29 14.21 16.61 16.39 18.72 18.89 18.48 20.53 20.64 21.50 22.65 20.95 14.66 18.24 22.68 23.11 17.17 19.30 19.48 19.10 18.75 18.24 19.28 17.65 18.52 18.04 19.15 20.06 20.25 20.50 20.50 20.70 21.35 19.30 19.55
18.77 20.19 17.50 17.89 16.23 14.56 10.93 8.66 7.68 8.03 9.18 11.09 10.61 4.87 6.86 8.85 11.80 15.05 16.42 15.04 16.58 11.23 10.85 13.13 13.51 15.46 16.39 20.09 22.29 21.63 20.71 13.18 7.99 11.73 13.13 14.11 12.65 9.46 8.71 8.08 10.49 21.90 21.29 15.69 16.20 16.50 18.19 18.86 19.62 20.94 21.30 20.85 21.76 17.28
18.07 20.92 21.50 13.52 11.70 10.12 8.95 11.17 11.80 13.13 16.98 13.05 11.26 8.90 10.07 13.36 11.66 11.15 15.38 12.41 4.30 6.29 14.38 21.49 19.07 10.20 10.61 11.63 13.20 15.30 15.18 7.47 9.97 11.79 10.20 15.24 11.41 11.38 1.14 4.18 7.58 11.20 11.63 11.38 17.87 20.03 18.63 19.65 20.19 21.25 22.25 21.41 18.34 16.48
17.25 20.14 17.11 11.40 12.51 13.85 12.83 12.58 8.76 6.39 12.72 15.46 15.46 12.53 12.55 12.25 14.25 10.79 11.48 11.58 15.35 23.00 24.08 17.25 14.47 9.73 17.96 13.17 18.64 16.50 10.19 11.67 13.15 15.71 13.79 15.88 13.08 4.65 2.30 4.68 6.08 6.41 5.69 6.47 7.99 10.88 19.79 17.56 18.96 20.39 18.39 12.14 10.97 10.95
17.05 13.63 9.84 8.40 8.73 6.01 2.90 2.50 2.83 15.81 4.43 1.07 2.95 8.51 12.48 9.86 13.65 12.42 17.35 24.52 19.99 10.87 11.20 17.80 15.59 6.15 9.05 9.18 7.31 7.33 15.14 8.65 2.25 6.07 7.84 5.08 4.31 4.49 5.34 5.28 4.41 0.94 0.73 2.86 4.97 6.07 5.19 10.71 11.21 11.94 12.11 8.98 7.92 10.98
14.02 8.51 13.72 13.49 9.75 2.73 -0.85 1.31 -4.76 0.17 -3.73 1.41 4.66 -0.84 3.94 5.37 8.15 14.58 10.89 6.99 7.01 9.80 18.68 13.64 7.74 14.10 8.60 5.47 4.36 6.57 20.00 10.24 4.43 2.54 1.61 3.13 3.33 6.30 9.18 12.38 11.36 -1.06 -0.22 0.67 -0.56 -0.57 -0.94 -1.71 0.83 3.64 6.38 5.22 4.50 3.75
14.18 15.96 11.52 5.20 7.93 4.78 2.91 1.09 0.30 -0.25 -1.97 -3.73 -1.91 -3.12 -3.73 3.72 10.62 14.66 6.66 1.28 6.19 6.08 5.41 4.02 4.45 3.66 4.07 3.32 2.34 1.22 7.62 -2.52 3.42 17.49 20.79 22.19 23.92 22.52 22.84 14.23 11.22 6.55 5.50 3.29 0.97 -0.52 -0.12 -0.65 0.03 -0.47 -0.87 -1.70 -2.13 -1.58

GFSWCAN_sfc_wetblb_054.txt.gz
Wetbulb
49.27 50.82 52.79 52.14 51.71 51.48 51.25 50.68 49.60 48.68 48.44 48.26 47.87 47.31 46.51 45.35 44.18 42.21 39.10 39.21 38.83 33.89 33.52 34.36 34.45 32.32 32.07 32.48 35.05 32.24 34.57 36.25 38.28 35.33 34.88 33.75 33.14 33.03 32.11 32.78 32.60 31.94 31.08 31.21 31.62 28.15 24.96 36.04 39.11 34.45 34.82 36.91 36.06 36.40
48.98 51.53 52.27 51.71 51.27 51.28 50.91 50.49 49.57 48.75 48.37 48.21 47.81 47.22 46.60 45.32 44.30 42.49 38.35 39.87 39.88 36.99 34.02 36.76 36.70 37.28 36.55 35.48 34.21 33.61 34.34 33.89 35.90 36.08 35.21 34.70 31.57 33.25 30.89 29.68 34.35 31.03 33.01 32.46 32.63 32.30 35.74 35.93 37.21 36.98 37.10 35.65 35.85 35.28
49.10 52.55 51.83 51.42 51.13 51.05 50.62 50.17 49.49 48.84 48.43 48.08 47.70 47.00 46.40 45.68 44.29 42.59 39.09 37.97 39.88 36.15 33.80 35.12 33.36 37.18 38.78 37.85 38.71 33.54 34.17 34.22 34.72 35.59 36.54 35.19 31.30 34.10 31.89 31.48 32.54 34.40 35.69 33.56 33.02 34.87 34.39 36.92 38.49 38.79 37.40 36.26 36.65 38.21
48.86 51.92 51.42 51.05 50.83 50.58 50.20 49.87 49.26 48.51 48.30 48.30 47.57 46.46 45.77 45.15 44.04 41.86 39.65 37.85 39.53 37.67 32.26 31.78 37.27 35.75 38.72 39.26 38.31 37.44 36.30 36.16 35.94 36.08 34.21 34.21 32.30 33.53 30.95 31.62 31.88 33.16 33.25 29.76 31.43 34.67 35.41 35.71 38.00 37.35 37.34 37.76 36.84 38.76
48.85 51.43 51.07 50.78 50.54 50.14 49.81 49.56 49.19 48.77 48.39 48.04 47.14 46.11 45.00 44.31 43.48 41.22 39.69 39.54 38.72 38.32 32.18 31.75 34.75 36.43 37.20 38.16 37.22 37.46 36.40 35.03 34.83 33.67 32.74 30.26 31.79 31.28 31.11 31.31 30.65 32.99 30.57 29.25 29.66 34.36 32.79 33.63 36.60 37.56 36.55 36.23 36.94 36.52
51.22 51.07 50.56 50.29 50.16 49.91 49.54 49.30 48.99 48.67 48.58 47.49 46.25 45.34 44.50 43.63 41.31 39.34 35.54 39.55 40.16 37.60 35.45 30.02 34.25 34.63 36.54 36.66 36.32 35.59 35.89 35.11 35.12 33.54 31.90 32.59 32.88 32.42 28.57 27.82 32.11 33.28 34.27 34.53 31.52 35.07 34.64 35.41 36.11 37.12 35.59 36.29 37.30 37.79
50.85 50.48 50.19 50.09 50.02 49.76 49.39 49.17 48.70 48.67 48.30 46.92 45.99 45.12 44.23 43.47 41.80 35.93 35.35 38.39 39.90 38.25 35.43 29.63 30.63 33.71 36.06 35.98 36.55 36.06 36.22 35.14 34.89 33.22 31.96 31.56 31.64 33.33 31.42 28.34 32.94 35.37 37.16 36.54 36.80 34.99 32.64 34.45 33.38 35.36 35.81 37.14 38.28 38.03
50.59 50.10 49.86 49.88 49.90 49.90 49.33 48.82 48.48 48.23 47.27 46.57 45.88 45.00 44.35 43.51 41.43 37.76 39.57 40.41 38.05 34.84 33.67 28.10 26.85 30.97 34.32 33.06 31.62 37.20 34.02 34.30 33.59 32.34 32.69 31.38 32.48 32.12 28.23 32.89 34.32 36.31 36.27 35.48 35.55 35.39 34.17 34.56 34.93 34.63 35.21 35.95 34.61 35.13
50.07 49.75 49.58 49.74 49.91 49.54 49.08 48.43 48.05 47.34 46.89 46.28 45.38 43.33 39.73 36.92 35.50 37.04 41.67 40.00 37.91 36.83 28.83 28.12 27.67 25.78 33.76 32.22 34.18 34.29 34.32 30.18 32.99 30.70 30.46 31.42 29.85 27.72 32.05 32.98 34.21 35.16 34.16 33.96 34.86 34.88 33.85 32.57 32.65 33.51 33.07 34.48 33.52 34.25
49.26 48.96 49.26 49.43 49.32 49.01 48.47 48.01 47.22 47.16 46.64 44.95 39.46 35.05 33.41 35.22 39.78 40.20 36.60 34.90 34.21 33.55 32.43 27.09 29.38 27.14 31.25 31.32 31.80 32.01 32.74 30.07 27.48 29.85 32.08 28.97 29.85 33.48 34.49 35.23 36.59 36.74 36.11 34.97 31.22 30.56 30.65 29.82 31.13 31.46 31.60 32.31 33.32 33.51
48.90 48.79 48.97 48.92 48.59 48.09 47.75 47.27 47.06 45.92 42.87 37.71 33.60 32.49 35.93 39.36 35.73 32.41 29.40 29.87 28.80 27.97 30.94 28.54 28.97 28.15 32.73 29.19 29.43 32.34 27.93 28.89 25.54 28.12 28.66 27.83 27.90 32.32 35.48 35.51 36.67 36.58 36.19 35.54 35.26 34.67 34.06 32.04 31.02 31.13 31.17 32.38 31.90 32.38
48.36 48.47 48.56 48.41 47.93 47.52 47.03 46.61 45.52 40.65 38.68 37.56 37.00 36.89 34.61 31.78 29.48 27.33 20.34 25.54 27.15 26.14 29.50 30.00 29.68 30.54 31.10 33.91 30.71 31.61 28.16 28.78 22.98 29.40 26.96 23.70 30.66 32.09 32.96 33.72 35.89 36.43 35.17 34.08 34.55 33.62 33.81 33.33 32.68 31.81 31.62 31.46 32.14 32.37
48.14 48.29 48.22 47.90 47.54 47.06 46.48 45.57 43.54 42.42 40.12 36.71 34.13 31.09 31.59 26.84 23.90 24.00 18.47 22.74 24.92 27.37 28.06 27.71 26.90 30.11 31.01 32.68 29.31 29.04 26.68 26.34 30.69 26.77 25.16 28.37 30.41 31.67 32.25 33.16 34.06 34.68 33.27 31.98 31.79 32.70 32.83 32.71 33.19 32.37 31.92 32.65 32.56 31.26
47.93 47.94 47.70 47.40 46.88 46.48 45.64 44.57 43.22 40.15 35.92 32.73 31.01 23.59 25.62 25.55 24.40 24.41 26.62 26.27 26.04 28.43 27.65 27.89 27.19 28.14 29.16 27.64 29.09 24.44 28.89 30.51 24.57 23.80 24.75 28.49 30.26 30.98 32.17 32.74 32.15 31.76 31.35 30.16 30.00 30.52 30.38 30.44 30.32 31.30 32.40 32.80 31.73 30.33
47.65 47.42 47.12 46.40 46.33 45.84 44.97 43.66 40.04 36.21 33.61 29.82 31.24 24.02 24.45 23.78 23.61 23.67 24.84 27.36 28.72 29.59 28.60 27.10 27.77 28.54 27.06 26.09 27.26 26.98 23.99 21.56 24.52 25.03 27.88 30.49 30.27 30.17 30.09 30.63 30.19 29.76 29.27 29.33 30.43 29.80 29.54 29.64 29.55 29.64 31.53 32.65 32.07 31.33
47.30 46.63 44.87 46.31 45.61 44.84 42.98 40.13 36.34 33.87 29.52 28.93 26.51 24.06 24.66 25.65 22.78 26.31 25.10 25.31 29.68 28.38 28.08 28.01 24.27 22.08 23.01 25.67 23.42 21.99 19.76 18.88 25.38 27.46 30.09 29.89 30.05 29.78 29.20 29.62 29.51 29.34 29.08 29.57 30.05 29.66 29.33 29.01 29.00 29.83 30.87 31.73 32.57 32.16
45.97 42.82 45.78 45.26 44.31 42.28 41.69 34.93 32.94 26.88 27.67 28.68 25.14 29.09 27.98 28.82 27.66 26.98 26.97 27.65 29.33 28.98 26.42 24.66 20.38 20.80 25.08 21.92 20.78 25.18 22.72 27.61 29.90 29.83 29.09 28.62 29.51 29.65 29.85 29.29 28.97 28.86 28.60 28.94 28.82 28.39 27.87 28.26 28.08 28.82 28.81 30.43 30.64 31.83
42.57 44.52 44.87 43.58 41.19 39.00 33.39 31.78 28.67 28.08 23.15 24.00 28.07 26.54 26.92 27.23 26.47 25.92 26.94 28.16 29.07 26.58 25.34 24.39 23.51 19.81 18.81 17.37 19.91 25.05 28.23 29.74 28.69 29.66 30.63 30.94 30.16 29.44 29.01 28.15 28.43 28.27 27.97 27.51 26.15 25.57 25.51 25.36 26.14 28.02 29.34 30.51 29.72 30.27
43.50 42.95 43.56 43.25 39.30 34.04 30.62 29.86 30.08 23.76 23.82 26.29 26.38 26.36 26.76 26.44 26.86 27.98 28.42 28.47 28.02 27.71 24.58 23.36 20.84 21.20 22.49 23.73 25.34 25.02 24.75 25.17 26.27 27.82 27.71 28.61 28.03 27.55 27.60 27.17 26.09 25.81 25.94 26.14 27.06 27.72 28.45 27.96 27.15 27.91 28.68 29.99 28.40 29.67
43.99 43.50 42.81 40.19 37.82 31.14 28.11 27.45 30.58 26.50 23.41 24.63 25.43 23.21 22.18 22.56 22.41 25.08 26.66 27.42 27.19 25.56 24.57 22.48 23.47 24.82 25.62 27.36 27.24 28.27 28.27 27.53 26.23 25.20 26.69 28.74 27.65 26.54 26.92 27.07 27.47 28.12 26.93 27.14 27.35 28.65 28.14 27.90 28.93 28.34 28.44 28.81 28.61 28.74
41.58 40.76 39.50 35.87 31.92 29.96 27.28 25.88 24.42 24.43 23.61 20.96 20.27 19.76 17.82 19.22 22.27 24.11 24.12 25.16 26.08 24.25 24.26 26.28 26.55 28.19 27.46 27.86 27.65 27.76 27.35 26.66 26.03 25.90 26.10 25.85 28.28 26.88 27.21 28.46 28.57 26.85 25.96 27.20 27.17 27.42 28.28 26.35 26.93 27.10 26.65 27.14 28.92 30.14
38.73 39.82 34.52 34.63 29.62 28.17 26.05 26.37 24.81 23.57 20.98 19.89 19.52 18.38 17.75 18.58 18.38 20.58 21.58 25.87 25.96 26.31 26.51 26.05 25.84 26.90 27.06 26.59 27.46 26.11 26.94 25.81 25.52 25.26 27.97 28.01 26.29 27.17 27.69 28.52 27.67 27.42 27.30 27.25 26.84 26.29 26.36 26.27 26.16 26.12 26.28 26.93 28.72 29.04
38.31 35.19 30.74 29.80 26.14 26.06 24.40 26.98 21.35 19.73 19.54 17.72 15.87 16.47 13.47 14.05 13.40 18.91 19.19 20.77 23.44 25.23 25.18 24.60 23.67 22.08 24.44 24.53 21.06 22.63 22.33 23.20 24.46 25.36 25.82 26.72 27.14 26.93 26.95 27.24 27.60 26.08 25.67 26.67 27.64 25.75 25.09 26.76 26.20 25.16 25.51 26.10 26.20 26.89
35.69 28.45 23.81 23.08 24.96 22.82 25.27 21.81 22.32 19.92 17.82 17.37 15.68 15.39 12.56 11.88 14.03 16.93 16.77 17.71 20.54 21.09 21.34 20.72 21.42 23.35 22.12 20.03 21.50 24.86 26.70 23.82 24.78 23.98 24.68 24.84 25.45 26.99 28.53 27.27 27.41 27.86 26.91 26.41 25.86 24.67 24.13 23.64 25.41 23.76 23.54 23.36 23.77 23.76
26.76 23.08 23.63 18.97 21.34 20.94 19.53 17.29 15.71 16.87 14.65 14.46 12.40 14.26 11.20 11.41 13.56 14.45 14.96 18.54 16.93 19.14 20.29 19.29 19.65 21.35 22.98 23.52 23.42 24.58 24.86 24.48 25.12 25.41 27.68 25.24 25.87 26.07 26.03 26.43 26.20 26.00 26.33 24.55 23.28 22.33 22.36 22.77 22.49 22.26 21.92 21.97 21.88 22.52
18.78 21.06 18.73 18.09 17.91 18.43 17.30 14.90 14.34 15.70 14.80 12.17 10.73 6.34 7.10 11.84 14.35 14.05 15.86 18.29 19.38 20.02 21.31 21.50 22.94 21.31 20.64 21.49 23.55 24.89 26.83 26.72 24.24 22.63 26.52 25.88 25.39 24.57 24.12 22.79 22.58 23.60 21.76 21.73 21.01 20.46 20.46 21.15 21.20 20.63 20.84 21.87 24.00 23.73
15.78 18.52 22.08 24.61 21.55 19.51 17.15 16.99 16.54 14.49 9.46 11.75 9.00 8.17 10.26 8.54 10.86 16.42 19.05 18.83 20.60 22.34 22.16 24.02 24.42 24.78 26.33 26.40 24.75 25.21 25.66 22.25 23.54 25.92 26.23 23.83 24.06 24.27 23.61 21.72 20.72 22.41 21.41 21.41 20.88 19.96 18.61 18.77 19.28 19.70 19.93 21.02 22.13 22.54
20.75 21.73 18.28 18.62 17.58 17.35 15.50 14.56 12.15 11.66 13.51 13.58 13.60 10.20 11.45 13.35 16.10 20.18 20.57 22.34 21.59 18.73 19.02 18.53 18.73 20.79 22.14 23.41 24.57 23.53 22.59 19.92 16.79 17.27 18.85 20.43 20.63 19.67 17.23 18.12 17.46 21.10 21.55 17.88 18.22 18.60 17.79 17.67 17.88 18.28 18.65 19.59 21.11 23.43
19.84 21.98 21.73 16.10 16.51 16.77 15.41 15.95 15.86 16.54 17.95 16.25 15.61 13.37 13.41 16.15 17.74 18.21 21.14 18.50 12.58 16.77 19.28 21.89 22.74 17.93 18.67 17.75 17.56 18.77 18.92 17.33 16.72 16.67 17.74 20.19 20.32 19.82 12.75 13.80 14.02 14.00 13.69 13.23 17.99 19.39 18.78 20.19 21.83 22.35 22.89 22.01 23.55 21.00
20.28 21.60 18.16 14.68 15.09 14.29 14.67 14.50 14.03 13.05 15.88 17.21 17.34 15.24 15.56 16.44 18.08 15.87 16.51 16.25 17.66 21.74 22.98 21.22 19.24 17.03 20.82 17.76 20.29 18.31 18.25 16.99 17.21 19.99 18.91 19.62 20.18 15.76 12.43 12.91 13.39 14.02 11.30 10.67 11.15 11.76 17.25 18.43 18.13 19.07 21.23 20.96 19.30 17.12
19.05 17.88 14.02 13.54 12.70 9.89 7.97 6.36 7.88 15.59 8.00 7.03 7.00 12.92 14.78 13.19 15.96 16.84 16.86 18.15 17.35 14.10 16.89 20.85 15.98 12.31 15.21 15.25 13.88 15.25 18.79 15.68 8.93 11.25 13.50 15.27 14.32 11.94 12.49 12.50 13.20 12.33 9.93 9.50 9.67 10.26 9.00 10.73 11.37 11.66 13.63 13.16 13.06 14.06
17.03 13.30 16.50 15.20 12.74 6.57 5.14 6.10 4.43 5.26 2.49 8.30 9.23 6.96 7.21 10.77 11.88 18.36 12.83 11.51 12.26 12.62 16.36 12.44 11.58 15.75 11.93 11.74 10.08 10.70 17.73 14.04 10.25 8.11 6.37 9.43 10.53 11.77 12.62 13.43 17.25 15.87 11.34 11.18 9.84 9.24 8.14 7.09 8.53 8.14 8.98 7.35 6.44 6.22
15.39 10.70 9.18 10.31 12.85 9.40 7.52 6.14 3.78 3.36 3.75 1.11 3.62 0.98 0.52 6.55 11.82 16.43 9.48 5.15 10.35 11.94 11.61 10.08 9.17 7.61 5.77 3.43 4.62 5.50 9.58 4.55 4.43 17.60 19.98 21.79 23.82 22.94 23.96 22.40 18.47 13.80 12.45 12.60 10.66 7.78 6.12 4.56 5.83 5.39 5.42 4.40 4.74 4.81

GFSWCAN_sfc_wetblb_057.txt.gz
Wetbulb
47.53 46.84 46.67 48.78 50.50 52.57 52.04 51.46 50.85 49.96 49.04 48.73 48.26 47.49 46.99 45.47 45.16 45.58 41.00 43.03 42.98 35.48 35.28 37.05 36.71 35.59 35.56 37.20 38.82 36.32 37.96 39.25 40.93 37.22 36.08 35.27 34.14 35.60 34.53 35.40 34.25 32.87 31.28 30.73 32.14 28.85 25.85 36.90 39.81 34.12 35.96 38.53 38.24 38.09
47.48 46.51 46.40 48.43 52.42 52.17 51.52 50.97 50.36 49.63 49.16 48.45 47.95 46.88 46.14 45.08 44.60 45.39 39.28 42.30 44.76 39.31 35.77 39.31 38.22 38.93 38.06 37.19 37.92 38.21 37.65 37.18 39.19 37.88 37.99 37.13 34.01 35.92 34.79 30.55 37.21 31.63 35.61 33.55 34.03 33.85 37.80 38.42 37.68 38.93 39.02 36.54 37.42 37.25
47.00 45.90 46.36 48.09 52.10 51.76 51.33 50.49 49.72 49.45 49.20 48.13 47.83 47.39 46.06 45.45 44.45 44.61 42.85 42.67 42.41 37.52 36.65 37.63 34.41 38.49 41.18 39.94 40.72 37.43 37.64 37.70 37.90 39.47 40.05 38.15 33.68 36.24 32.87 33.82 34.68 36.23 37.41 35.48 34.41 37.31 37.61 38.06 40.21 39.84 39.32 37.99 38.67 38.80
46.55 45.52 46.66 48.20 50.77 51.20 50.83 50.20 49.78 49.53 48.53 48.05 47.69 47.11 46.47 45.59 44.83 44.71 41.64 42.03 43.90 41.05 34.86 32.84 39.79 36.96 40.59 41.37 40.02 39.88 38.55 38.79 39.03 39.61 37.99 37.61 34.99 36.21 34.69 34.14 33.93 34.74 34.73 32.05 33.20 36.44 37.09 38.39 39.85 38.71 37.85 38.18 38.51 39.04
45.75 45.26 46.45 51.65 51.05 50.57 50.08 49.68 49.54 49.21 48.58 47.57 46.96 46.35 45.63 45.04 44.75 44.14 42.70 41.66 42.37 41.29 33.73 33.21 37.50 38.24 39.54 40.08 38.89 39.53 38.70 37.84 37.77 36.19 35.75 33.61 35.11 34.02 34.28 33.58 32.23 34.85 32.94 31.21 32.10 35.70 34.74 35.70 37.98 37.91 35.83 35.58 36.33 36.06
45.18 44.71 46.19 50.98 50.48 50.03 49.48 49.24 49.19 48.97 48.17 47.07 45.74 45.65 45.18 44.74 44.36 43.66 39.74 42.45 42.59 43.53 38.01 31.25 37.14 36.87 37.87 38.99 37.98 37.28 37.73 37.36 37.67 36.38 34.52 34.57 34.91 34.63 31.03 30.18 34.40 35.41 36.01 36.62 33.79 36.55 36.25 36.75 37.59 37.64 35.43 35.43 36.44 37.12
45.23 45.45 48.40 48.79 49.91 49.38 49.10 48.94 48.91 48.40 47.54 45.57 45.00 44.90 44.83 44.88 43.53 39.17 38.34 40.96 41.28 42.99 37.57 31.82 31.81 35.57 37.65 38.19 38.46 37.94 38.71 37.10 37.28 35.55 34.48 34.18 33.82 35.03 33.04 30.09 34.49 36.41 38.01 38.05 37.84 36.80 33.94 35.40 33.72 35.80 35.60 35.77 36.69 36.79
45.17 47.35 48.72 49.88 49.44 49.15 48.90 48.70 48.50 47.69 46.89 45.60 45.09 44.95 44.37 43.89 42.93 39.15 39.98 41.18 41.36 39.49 39.30 32.30 29.49 32.16 36.29 34.77 33.16 38.39 35.83 36.78 35.91 34.89 34.67 33.58 34.03 34.10 30.24 35.49 36.21 36.76 37.18 36.58 36.66 36.94 35.77 36.81 36.10 35.28 35.45 34.88 33.27 33.11
45.99 47.83 49.78 49.33 49.11 48.95 48.63 48.55 47.85 47.00 46.46 45.73 43.94 43.35 42.88 40.04 38.71 38.64 41.64 41.00 42.43 40.75 33.95 34.04 30.51 27.57 35.61 34.28 35.82 35.23 36.31 32.49 35.12 33.11 32.93 33.18 32.25 29.17 34.28 34.71 34.68 35.85 34.75 34.63 35.93 35.57 35.60 34.54 33.86 33.83 34.00 33.48 31.75 32.40
47.40 49.23 49.10 48.98 48.77 48.42 48.37 47.84 47.34 46.52 45.80 43.96 41.59 39.45 36.06 36.75 41.32 41.33 39.68 38.07 37.95 37.42 36.58 29.98 32.89 28.75 33.87 33.82 32.53 31.78 32.95 31.62 28.87 32.27 33.97 30.44 31.62 36.36 36.26 36.37 36.38 36.10 35.85 35.54 32.30 31.04 32.92 32.53 33.07 33.24 32.86 33.56 32.93 32.09
47.27 49.09 48.84 48.55 48.17 47.90 47.54 47.31 46.74 45.78 43.57 39.82 36.61 34.06 37.69 40.51 37.46 35.51 32.79 33.97 32.74 32.40 33.77 31.90 32.72 29.56 34.63 31.44 31.11 33.34 28.84 29.61 27.02 29.71 29.45 29.96 29.62 33.44 36.41 35.86 36.60 36.55 36.30 35.65 35.32 35.08 34.90 34.13 33.41 32.97 33.00 33.59 33.62 33.28
48.81 48.69 48.42 48.17 47.85 47.49 47.15 46.76 45.85 42.95 41.33 40.39 38.85 39.09 37.11 33.76 33.11 31.43 26.38 29.73 31.45 28.87 32.02 32.04 31.03 33.22 32.91 35.68 31.66 32.18 28.63 28.86 24.91 31.30 27.88 25.18 31.96 33.50 33.85 33.93 34.85 36.17 35.86 34.54 34.24 33.02 33.44 33.59 33.67 33.27 33.13 33.42 33.72 34.04
48.69 48.52 48.33 47.91 47.51 47.24 46.99 45.84 43.91 43.33 41.42 39.94 37.91 34.27 34.07 29.74 28.54 30.01 23.80 26.21 27.89 30.45 30.14 30.35 28.92 32.53 32.63 33.80 29.76 29.98 27.30 26.83 32.34 27.87 26.53 29.82 31.30 32.33 33.06 33.68 33.99 35.96 35.06 33.39 32.34 32.61 32.87 32.53 33.07 32.50 31.80 32.75 33.44 33.85
48.34 48.24 47.80 47.35 47.01 46.82 46.01 44.83 44.03 41.64 40.61 37.34 33.48 25.60 31.49 27.99 28.87 30.61 31.79 32.45 31.36 32.50 31.00 31.93 29.99 30.52 31.16 29.79 29.36 25.83 29.76 30.43 24.82 23.20 25.63 29.89 31.19 32.02 33.14 33.63 32.65 32.20 32.58 31.64 31.12 31.50 31.47 30.94 30.92 31.52 31.81 32.31 31.87 31.74
48.12 47.59 47.11 46.63 46.49 45.59 45.04 43.83 40.72 39.44 38.18 33.54 35.26 27.53 27.25 25.74 27.54 28.07 30.59 30.82 31.48 33.38 31.89 30.46 30.41 31.41 28.97 27.29 28.89 27.77 24.93 22.46 25.57 25.82 30.74 32.51 32.18 32.20 32.00 32.08 31.67 31.28 31.31 30.87 31.18 30.72 30.57 30.09 29.78 29.97 31.26 31.85 31.73 31.64
47.44 46.68 45.18 46.31 45.51 44.97 42.76 41.11 38.99 37.16 34.20 33.09 29.50 25.19 26.43 27.85 26.45 29.27 30.34 28.42 31.85 31.95 32.13 32.53 27.96 26.01 25.18 27.03 24.43 23.35 22.09 21.27 27.33 31.86 33.28 32.38 32.13 32.37 31.74 31.68 31.75 31.73 30.93 30.63 30.89 31.30 31.14 30.39 30.01 29.98 30.44 30.08 30.72 31.49
46.27 43.18 45.60 45.17 44.20 43.23 41.68 38.72 37.18 31.30 32.36 32.33 27.82 30.90 31.99 31.53 31.17 30.82 31.74 30.31 33.28 32.09 30.20 29.82 25.28 23.69 27.15 24.04 22.74 27.05 24.12 29.60 32.04 33.00 33.39 33.31 32.19 32.14 31.76 31.12 31.06 30.81 30.19 30.40 30.39 30.58 29.91 30.56 29.85 28.25 27.44 29.49 30.38 30.76
43.11 44.61 44.87 43.58 42.04 39.36 35.74 35.73 33.39 31.84 25.71 27.40 29.47 28.17 29.12 31.35 29.93 29.31 29.95 31.57 32.33 30.53 30.77 28.77 28.15 24.16 22.89 21.52 23.78 28.74 31.21 33.58 32.64 32.30 32.47 32.33 31.73 31.27 30.73 29.83 30.15 29.97 29.73 29.38 28.93 28.58 28.18 27.59 28.01 29.30 29.57 29.66 28.97 29.68
43.83 43.44 43.38 43.31 40.73 37.15 33.53 31.50 33.53 25.35 25.85 27.76 28.24 28.90 29.47 28.52 30.13 31.46 31.29 30.27 30.92 31.24 29.28 28.57 25.84 25.76 25.89 27.62 29.78 30.76 31.60 30.42 29.55 30.56 30.54 31.00 30.99 29.96 29.42 29.02 28.23 28.02 28.34 28.90 29.62 29.72 30.22 29.75 29.14 29.42 29.09 28.64 27.40 28.49
43.97 43.64 42.70 40.56 39.19 34.22 30.70 29.11 33.61 29.05 26.34 25.91 28.79 25.82 25.53 25.46 26.80 29.96 29.70 29.62 30.59 31.47 28.45 26.70 27.20 28.88 28.75 31.31 32.44 32.47 32.20 31.29 29.47 28.00 29.19 31.30 32.12 29.91 29.97 29.89 29.73 30.16 29.57 29.74 29.96 31.25 30.30 30.03 30.56 30.36 29.01 27.97 27.01 26.63
41.54 39.78 39.34 37.10 33.93 31.64 29.15 28.12 25.23 26.18 25.77 23.35 24.36 25.30 22.90 26.82 26.54 27.50 27.88 29.05 30.27 28.83 28.42 30.08 29.96 31.40 30.84 31.19 31.36 31.30 30.50 29.86 29.24 29.46 29.62 29.20 31.55 30.88 30.23 30.87 31.10 30.69 29.43 28.99 28.62 28.79 29.43 28.05 28.77 28.68 27.46 26.57 27.08 27.44
38.96 40.38 36.03 35.48 31.21 29.93 26.81 26.77 25.21 24.94 23.44 23.19 24.14 25.33 24.87 24.51 23.76 24.22 25.21 27.90 28.19 30.41 30.46 30.27 30.04 30.59 29.62 28.97 30.39 29.59 30.28 28.89 28.83 28.56 29.93 29.91 27.94 29.29 29.64 30.45 29.49 28.52 28.53 28.68 28.46 27.70 27.67 27.92 27.72 27.24 26.86 26.82 27.72 27.27
38.48 35.48 32.10 32.19 28.23 27.21 23.91 28.36 24.53 24.25 24.13 21.65 22.27 22.73 19.82 19.82 18.99 21.38 22.33 25.52 27.38 29.83 29.22 28.41 28.26 26.31 27.27 28.14 25.38 26.62 26.44 26.37 27.27 28.23 28.65 29.46 30.09 29.89 29.38 29.32 29.77 28.53 27.45 28.26 29.26 28.20 27.40 28.50 26.93 25.69 25.73 25.84 25.09 25.06
34.91 28.13 25.58 26.19 27.29 23.25 26.65 23.04 24.39 22.94 23.23 22.86 22.73 18.29 17.54 17.44 18.09 19.68 20.83 24.37 25.71 24.63 24.67 25.47 25.79 26.87 26.46 24.80 26.57 28.89 30.15 28.29 28.19 28.56 28.87 27.85 27.71 28.83 30.32 29.96 29.66 29.44 28.93 28.36 27.51 26.91 26.33 25.16 25.83 24.15 23.75 23.18 23.13 23.20
30.46 24.02 26.44 21.11 24.82 23.90 21.89 21.22 21.07 21.94 19.22 19.27 18.17 16.37 15.14 15.02 18.63 18.13 20.26 25.80 24.00 24.00 25.71 25.03 25.23 26.57 27.63 28.83 29.04 29.00 28.43 28.49 28.44 27.99 30.15 29.90 28.37 27.88 27.87 28.76 28.96 29.19 29.03 26.75 25.28 24.66 23.54 23.35 22.89 22.49 22.31 21.89 21.54 21.56
20.98 22.16 23.05 22.07 20.72 22.81 21.76 19.73 19.97 19.29 18.79 16.63 13.98 12.37 13.36 17.11 17.23 18.67 22.40 25.70 24.43 25.87 25.97 25.49 26.11 25.11 25.05 26.32 27.70 28.86 30.11 30.69 28.61 26.22 28.45 29.57 27.86 26.84 25.94 25.07 25.07 26.22 25.34 24.20 22.53 21.45 20.81 20.84 20.34 19.22 19.47 20.54 22.89 21.47
20.25 20.49 23.05 24.88 22.95 21.21 19.29 19.33 19.87 20.10 17.47 15.02 13.67 12.26 15.59 15.46 17.47 22.44 24.48 24.93 25.93 28.92 30.24 31.16 30.04 29.39 30.05 30.92 29.29 29.11 29.26 28.76 26.44 27.74 28.79 27.85 27.36 27.13 26.41 24.41 23.66 25.36 22.93 22.57 22.08 20.62 18.67 18.03 17.78 17.94 18.25 19.36 20.09 20.52
22.97 24.01 20.14 20.63 19.83 20.95 18.81 18.70 18.63 19.07 18.69 18.10 17.86 15.17 16.11 18.82 20.82 26.24 26.37 29.03 28.23 27.75 27.94 27.30 26.80 27.79 28.43 28.82 29.33 27.73 26.72 26.86 23.54 22.52 23.46 24.13 24.22 24.87 23.30 23.62 22.51 22.50 22.46 20.77 19.62 19.74 19.17 18.35 17.54 17.58 17.99 18.67 19.82 21.77
21.98 23.19 23.63 18.49 19.64 20.88 20.68 20.91 21.15 20.68 20.67 20.36 21.88 19.08 19.02 21.69 25.20 25.30 27.07 26.06 23.06 25.70 27.27 28.43 29.64 25.38 25.62 25.95 25.16 24.75 24.60 23.72 20.93 17.55 19.37 22.47 24.62 24.52 18.82 18.93 19.21 19.01 18.56 17.37 20.18 21.29 19.59 19.55 20.64 21.32 21.46 22.00 23.60 24.21
21.87 23.80 20.73 19.83 20.24 20.04 17.92 16.40 19.03 19.06 19.85 21.05 20.68 20.22 20.30 22.14 25.00 24.94 24.59 24.75 24.72 26.04 28.23 28.65 27.62 24.68 24.64 24.15 23.95 22.83 24.81 23.62 21.73 21.30 20.48 20.57 21.57 20.26 18.81 17.90 17.66 17.95 17.59 15.89 15.37 15.28 18.94 18.26 17.53 15.77 15.66 17.04 19.52 19.03
21.69 22.80 20.48 19.59 16.57 14.46 12.50 10.84 14.70 17.71 15.32 16.41 14.53 19.90 20.59 17.58 21.04 24.15 22.01 22.22 22.89 23.56 23.76 24.37 23.32 22.25 21.27 21.32 21.26 19.97 20.32 19.24 11.79 13.07 14.60 16.15 16.24 16.45 16.22 16.52 16.99 17.33 17.11 14.73 14.03 13.84 12.56 11.46 12.61 12.12 12.08 9.82 9.40 12.37
21.05 18.96 20.86 17.35 15.26 12.98 12.35 13.73 14.01 16.02 14.16 17.72 16.89 13.27 17.01 18.95 18.49 25.44 18.63 19.25 22.04 23.08 22.68 21.03 20.61 21.22 17.97 16.35 14.89 14.76 17.32 14.40 11.94 11.51 9.52 12.41 14.41 16.17 17.15 17.56 18.66 19.73 18.05 15.37 14.76 13.57 11.31 8.91 9.17 9.56 9.48 8.30 6.96 6.33
19.18 18.44 17.57 16.70 16.06 14.94 14.15 14.72 14.37 14.53 13.93 14.26 13.71 10.21 11.25 12.94 15.66 22.12 16.37 13.45 17.48 19.71 19.06 17.99 16.83 14.85 11.46 8.01 9.62 9.95 12.01 9.64 8.10 17.54 19.39 21.57 23.68 23.78 24.38 23.27 21.74 18.44 15.89 15.32 14.65 12.09 8.29 6.50 6.41 5.48 5.50 4.59 4.40 4.81

GFSWCAN_sfc_wetblb_063.txt.gz
Wetbulb
47.83 47.61 47.60 47.48 47.33 46.96 47.96 47.95 48.28 51.86 51.13 50.40 49.72 49.04 48.59 50.42 50.40 40.57 36.68 39.03 35.60 29.74 30.36 33.32 33.72 31.10 32.76 32.77 31.30 32.52 33.77 35.00 34.95 31.38 30.55 28.46 27.33 28.69 27.91 30.42 29.04 27.62 23.96 24.59 26.02 26.14 22.48 33.17 33.30 29.76 30.26 32.71 33.63 33.80
47.81 47.38 47.62 47.45 47.11 46.86 48.28 47.65 47.80 47.69 50.26 49.81 48.77 47.80 48.05 50.34 47.16 42.27 35.07 39.36 39.09 32.51 30.28 34.80 35.14 35.67 34.68 33.77 33.38 33.96 33.28 33.88 34.41 33.19 31.63 30.48 28.58 28.88 27.81 24.37 30.31 26.49 29.57 27.62 27.93 27.06 33.05 32.93 32.11 33.75 33.96 32.47 32.07 31.99
47.29 46.91 47.47 47.36 46.59 46.94 47.64 47.25 48.99 50.22 49.75 49.03 48.09 47.42 47.82 47.83 47.13 42.10 36.36 36.99 35.95 30.64 29.75 30.38 30.46 35.36 37.67 36.87 37.22 32.10 32.48 35.23 34.06 34.47 32.97 31.83 29.43 29.76 25.48 26.45 27.13 29.27 30.94 29.62 29.39 29.53 30.66 32.10 33.26 33.89 33.43 32.50 33.31 35.43
46.75 47.22 47.12 46.78 46.29 46.99 46.56 47.42 50.50 50.08 49.33 49.02 48.33 47.66 47.29 47.51 46.56 42.79 37.48 38.47 36.08 32.57 26.15 27.53 36.36 32.96 37.59 37.48 37.34 36.63 35.38 35.69 35.04 33.41 31.33 29.95 29.24 31.36 27.84 29.37 28.80 30.25 29.64 27.49 27.01 29.73 30.78 32.04 33.07 33.63 33.96 34.47 33.71 34.24
46.78 46.94 46.82 46.07 46.40 45.37 46.31 50.69 50.04 49.55 49.27 48.72 48.41 47.31 47.13 46.91 45.75 41.07 38.39 38.62 38.92 33.45 26.88 27.43 32.80 35.53 35.96 36.12 35.95 36.41 35.70 33.65 31.59 28.86 26.70 27.17 27.91 27.83 26.65 26.28 24.47 28.51 27.53 25.25 24.52 30.78 30.12 30.80 32.76 33.80 32.63 33.01 33.86 33.46
46.75 46.70 46.19 45.89 46.81 45.60 46.51 46.76 49.44 49.23 48.69 48.13 47.00 46.60 47.44 46.31 44.64 39.42 33.51 38.00 39.44 37.18 29.80 24.92 33.48 33.32 35.42 35.53 35.07 34.46 34.21 32.87 31.44 29.29 26.82 27.66 30.91 28.77 22.45 22.00 28.10 30.24 31.78 32.24 29.83 32.45 32.89 32.79 33.16 32.85 31.14 31.69 32.38 32.78
46.54 46.23 45.70 46.06 46.47 46.18 46.71 46.97 49.58 48.26 48.25 47.48 46.69 47.42 47.31 44.73 38.57 35.81 33.14 36.84 40.81 38.52 30.29 25.48 23.62 31.47 34.25 33.96 33.71 33.26 33.51 32.09 31.10 28.75 27.82 26.95 28.13 28.93 26.52 23.23 28.82 30.98 32.65 32.96 33.35 31.43 29.83 31.28 29.26 31.81 30.21 31.34 32.96 32.33
46.33 45.68 45.85 46.22 46.08 45.63 47.08 49.23 48.90 48.67 48.22 47.04 46.57 46.12 45.20 44.03 41.27 34.41 36.53 41.04 40.22 35.39 31.60 19.16 19.07 25.60 32.47 30.95 29.15 32.94 30.17 31.12 30.10 28.63 29.13 27.26 28.71 27.67 23.61 29.00 30.63 32.06 32.18 32.33 31.95 31.66 31.02 31.10 30.93 30.93 31.37 30.48 28.89 28.37
46.25 45.97 45.75 45.07 46.53 49.52 49.18 48.84 48.33 47.82 47.41 46.93 46.31 46.13 39.59 36.76 33.50 33.58 41.18 41.49 38.73 32.15 25.66 22.86 19.87 16.46 31.22 31.78 33.34 30.61 30.72 26.23 29.83 28.20 28.03 28.72 26.63 21.71 27.98 30.22 30.19 31.42 31.00 30.71 31.26 30.70 29.80 29.28 29.59 29.90 29.52 28.87 27.70 27.71
46.18 46.30 45.32 45.26 49.14 48.78 48.34 48.03 47.56 47.12 46.81 46.74 42.22 37.13 32.11 33.66 42.12 41.37 36.19 31.02 30.90 30.86 27.89 21.23 21.98 18.83 28.16 31.77 30.43 30.91 31.45 29.43 19.52 27.46 28.82 26.92 25.73 30.92 30.55 31.21 31.61 31.53 31.72 31.13 26.32 24.91 26.20 24.03 26.80 27.32 27.72 28.32 28.36 28.47
46.32 46.29 45.69 46.03 48.08 47.65 47.46 47.35 47.06 46.75 46.18 37.97 33.90 32.41 36.27 40.63 36.11 33.39 28.50 26.68 26.75 22.12 26.58 24.98 22.72 22.66 30.05 23.72 26.05 30.63 28.10 28.90 24.60 25.75 25.01 25.14 24.90 27.43 29.73 30.24 30.81 30.60 30.53 29.64 28.98 28.86 28.36 28.07 26.94 26.73 27.56 28.70 28.91 28.55
46.29 46.20 45.66 45.89 47.54 47.08 46.95 47.02 46.31 40.72 37.93 38.45 36.68 37.27 35.41 32.19 30.08 24.33 21.86 24.86 24.22 21.52 25.59 24.33 26.11 27.05 28.71 30.52 26.35 30.09 23.52 27.25 23.28 30.49 26.17 23.46 27.90 29.38 28.69 28.24 29.12 29.74 28.89 28.83 29.54 29.22 28.97 29.07 28.38 27.86 28.03 27.92 27.91 28.71
46.27 45.65 46.09 47.61 47.13 46.99 46.73 46.11 45.42 44.82 41.55 37.84 32.72 27.08 25.32 22.83 19.47 14.29 17.53 18.54 17.94 24.51 23.95 24.58 22.48 27.15 29.13 30.01 27.64 23.45 17.74 18.64 27.25 25.11 20.93 22.79 28.03 27.04 27.16 28.03 27.49 25.97 25.63 27.62 28.27 28.40 28.66 27.95 28.35 27.87 26.98 27.67 27.37 27.10
46.20 45.75 47.95 47.24 46.92 46.17 45.89 45.99 45.27 42.15 37.59 29.81 23.97 19.12 17.88 15.15 21.34 25.97 23.54 21.40 24.76 24.81 26.82 26.60 25.47 26.29 28.11 24.97 24.73 14.64 26.19 25.87 14.66 10.35 14.81 19.35 24.03 25.52 26.48 27.96 27.41 26.10 26.36 23.77 22.75 25.48 25.78 24.86 24.56 25.84 26.84 27.06 26.75 26.48
45.01 47.67 47.20 46.72 46.37 45.80 45.53 45.72 42.78 36.47 31.88 24.56 22.82 15.44 18.05 25.65 26.70 24.19 21.02 25.17 25.41 28.52 27.03 25.50 25.74 25.69 21.39 20.65 24.45 20.73 15.42 8.95 15.11 16.59 19.05 20.27 25.22 25.92 26.20 26.81 26.20 25.04 24.99 24.75 25.09 22.91 21.10 22.30 23.15 24.31 26.03 25.67 25.95 26.70
47.68 46.99 45.40 46.69 46.49 45.50 45.14 42.10 37.20 34.47 29.48 24.27 20.11 18.48 26.20 25.60 25.35 22.11 22.48 26.10 25.29 28.47 26.12 26.06 20.51 16.79 18.83 19.70 15.16 11.35 12.67 10.59 16.19 18.07 22.44 23.80 25.03 26.05 26.74 26.92 26.20 25.55 24.97 25.32 25.18 25.83 26.11 25.19 24.68 25.18 26.34 25.66 25.69 25.33
46.68 43.15 46.30 46.35 45.59 44.92 43.31 35.77 32.28 25.80 21.81 18.74 19.48 28.12 27.25 27.46 26.20 25.49 26.09 26.17 28.49 27.40 21.41 20.31 14.52 15.86 20.75 14.11 15.00 18.21 14.09 17.27 20.43 21.13 22.28 25.06 25.91 25.47 25.35 25.54 25.64 25.50 24.93 24.44 23.99 24.23 23.76 25.41 22.85 20.05 21.35 24.96 24.98 26.17
43.17 45.38 46.15 45.54 42.94 39.83 33.19 30.07 25.73 21.69 19.56 21.77 22.38 22.29 27.33 27.57 25.78 25.82 26.52 27.87 28.00 25.59 23.33 17.39 20.54 13.42 12.76 11.00 14.16 19.87 19.24 18.13 20.99 23.09 23.88 25.52 25.72 24.93 25.59 24.64 25.41 24.98 24.44 20.49 19.62 17.90 16.87 20.24 20.38 22.72 23.05 24.97 24.92 24.54
44.46 44.97 45.07 43.89 39.99 32.75 26.88 25.18 26.75 21.72 24.00 22.95 24.95 27.36 27.72 27.36 26.97 26.20 26.32 26.70 27.01 27.38 25.35 18.11 15.11 12.87 18.08 19.57 18.86 15.28 15.46 21.16 23.62 23.59 24.02 24.71 24.68 24.31 24.03 22.38 22.13 20.85 20.72 19.00 21.04 23.82 23.82 23.99 24.32 24.92 24.81 24.39 23.31 24.03
45.54 44.70 43.77 42.54 39.44 30.43 23.31 23.18 28.14 23.66 18.84 23.93 24.44 23.41 25.24 25.68 24.89 23.24 23.63 26.48 26.28 20.12 18.51 15.44 19.94 22.24 23.38 23.49 22.65 22.61 22.49 25.26 23.37 21.68 22.41 22.79 23.70 19.53 21.67 22.27 23.07 22.46 21.80 19.93 21.55 27.76 23.97 22.69 23.25 23.44 22.60 23.02 24.38 22.88
43.24 42.02 39.86 35.53 30.05 27.71 24.46 19.01 20.78 21.39 22.96 21.75 23.73 23.82 24.47 23.57 19.99 17.58 17.00 23.69 20.44 14.88 16.79 21.75 23.83 24.60 25.28 25.37 26.28 25.87 25.88 25.37 23.45 22.76 21.52 18.60 23.08 20.62 21.20 21.31 19.75 22.82 22.06 24.75 23.97 23.92 25.34 22.63 24.03 23.48 23.35 23.47 23.11 22.89
39.70 39.78 33.53 34.51 28.00 24.39 22.47 25.51 22.43 24.23 22.52 22.27 22.28 23.10 19.75 14.55 17.69 18.95 20.68 15.74 12.95 19.96 20.67 20.57 20.61 22.78 23.75 23.74 23.83 24.28 25.21 25.02 24.29 23.74 28.02 26.74 22.90 20.32 21.71 22.20 18.66 22.04 20.23 21.37 21.98 22.92 23.85 24.01 23.60 23.32 22.25 22.72 23.90 21.90
38.41 35.47 32.36 30.55 25.41 22.89 20.32 26.27 21.74 20.44 21.95 18.44 20.67 19.08 15.16 8.18 11.12 15.22 12.37 13.45 16.81 18.58 20.93 20.26 17.76 16.73 20.09 18.81 18.48 19.40 19.21 20.33 22.09 22.10 22.28 22.49 22.98 22.66 21.46 23.02 21.41 19.81 22.02 23.74 20.91 21.41 20.89 25.79 24.54 23.41 21.80 20.86 20.29 19.61
36.20 29.24 26.55 25.39 23.85 20.58 22.36 15.70 21.99 20.97 22.94 22.15 18.97 16.00 15.55 9.11 10.70 9.36 12.57 14.43 18.69 19.73 19.05 15.49 16.66 18.29 18.46 18.19 17.05 19.36 20.31 18.55 17.35 17.43 21.09 20.52 17.57 21.70 22.37 22.91 22.21 21.07 21.69 23.84 21.33 19.09 17.04 21.21 23.19 19.98 19.05 16.68 16.46 15.68
30.82 25.43 24.82 19.12 20.42 17.17 15.61 14.37 16.76 20.66 18.64 19.41 17.31 15.38 13.48 9.25 7.90 7.66 11.63 15.60 12.21 15.11 15.65 15.59 16.22 17.54 17.96 16.93 16.88 19.51 19.10 19.53 17.76 18.41 19.56 18.34 19.46 19.69 21.77 20.33 21.21 22.15 19.90 14.28 16.78 14.20 13.23 13.48 14.36 14.22 14.40 13.60 13.22 15.03
21.76 21.48 20.58 17.88 15.33 17.22 16.50 16.27 18.41 18.71 19.37 16.91 14.44 12.61 9.39 9.17 9.99 12.37 13.50 14.28 15.64 15.77 16.41 19.46 19.94 17.82 17.66 19.93 18.69 18.71 20.31 18.01 16.68 15.84 18.38 17.91 16.79 15.25 16.28 17.41 19.10 18.39 14.13 12.82 12.54 14.24 15.11 13.84 12.93 11.35 12.47 13.21 17.95 14.52
19.98 16.20 19.92 23.78 21.80 21.17 19.83 20.96 22.30 21.37 18.47 16.58 14.19 12.21 13.08 10.91 9.53 13.74 16.61 14.65 15.98 14.31 16.02 19.20 19.92 18.44 16.68 17.88 19.79 19.53 18.00 12.77 16.86 18.36 19.07 16.82 17.28 16.79 15.92 17.00 16.22 16.28 15.68 13.55 11.74 11.96 14.23 14.60 13.88 13.64 13.69 13.55 12.73 13.30
22.35 19.59 15.46 16.29 19.55 20.64 19.62 19.92 20.29 20.60 19.00 18.11 17.70 13.24 14.18 15.44 15.71 16.67 16.54 15.05 13.60 12.77 12.71 12.22 14.02 14.24 15.00 14.49 13.71 15.43 11.62 8.50 9.49 8.73 9.93 12.09 10.15 5.62 7.09 8.69 10.18 22.00 18.47 14.39 14.06 9.64 13.17 14.03 14.61 15.20 14.87 15.50 13.98 13.07
18.89 21.93 22.99 18.70 19.24 18.41 18.34 20.37 19.84 19.09 20.46 19.70 16.09 12.99 13.77 15.83 12.75 13.26 16.25 14.66 10.73 14.77 13.69 14.51 14.55 8.42 9.70 9.12 8.63 7.40 6.96 9.17 11.32 9.85 8.09 12.78 10.43 9.45 9.44 10.93 9.27 9.43 8.68 8.54 19.21 21.17 20.28 20.42 20.42 18.46 12.83 9.92 9.02 8.99
20.44 22.94 20.69 18.68 18.69 16.36 14.76 15.19 17.27 18.25 18.46 17.13 17.84 16.35 15.17 15.74 15.28 11.73 13.60 12.83 13.66 12.03 9.60 8.91 7.45 8.49 8.83 8.29 7.78 8.75 5.05 4.12 6.74 9.53 6.30 9.37 7.54 6.49 8.34 7.76 7.94 10.70 11.23 10.47 11.01 9.44 16.80 12.33 8.39 1.46 2.91 2.64 3.37 5.04
23.37 22.64 18.53 16.56 13.70 13.58 13.69 13.86 16.12 19.00 14.87 12.35 10.05 12.57 14.12 11.39 13.76 11.35 10.42 8.15 6.26 4.11 9.12 8.13 6.12 0.46 6.46 5.10 5.13 5.33 8.93 3.94 0.21 1.45 0.62 2.39 3.35 5.14 7.80 9.07 11.95 11.62 9.47 10.73 10.72 9.64 6.50 3.73 0.73 1.03 0.41 -0.96 -0.10 4.15
20.30 18.64 18.45 16.56 15.14 14.99 15.23 15.77 15.46 14.09 11.06 12.11 11.01 10.13 11.31 11.15 12.93 13.92 10.04 6.68 7.11 10.13 14.86 6.94 7.08 9.97 5.35 2.82 1.65 2.11 16.07 3.27 0.98 0.63 -0.18 4.57 7.92 11.12 12.60 13.80 11.01 7.08 9.50 7.79 6.40 5.84 4.35 1.84 1.21 1.26 2.03 -0.03 -0.10 -0.21
19.16 18.41 17.36 16.05 15.34 15.11 15.73 15.99 12.37 12.85 13.17 12.47 8.36 2.91 1.56 7.15 12.62 13.68 7.82 3.10 8.35 8.48 8.79 7.49 3.24 2.16 3.18 2.95 2.05 1.54 9.21 -0.84 4.20 17.23 19.16 21.30 22.20 22.75 17.87 10.49 9.18 7.28 6.32 4.91 3.74 1.52 0.36 -1.65 -2.50 -1.78 0.88 0.13 0.74 1.67

GFSWCAN_sfc_wetblb_066.txt.gz
Wetbulb
47.18 47.88 48.30 48.24 48.24 48.18 48.08 47.40 47.84 47.88 48.41 50.86 51.13 49.88 49.66 50.24 48.37 39.63 36.32 38.08 34.83 29.18 29.66 32.05 32.68 31.48 32.50 32.94 31.32 32.87 33.99 34.87 34.05 29.96 29.56 27.81 26.37 27.87 26.65 28.17 27.47 26.84 23.79 24.02 24.89 22.12 22.55 31.44 31.86 29.54 29.97 31.92 32.51 32.21
47.15 47.63 48.08 48.13 47.49 48.09 47.88 47.16 47.82 47.73 48.60 50.84 49.94 49.25 49.32 49.71 47.50 41.75 34.92 38.20 37.70 31.83 30.47 33.81 33.87 34.54 34.16 32.97 32.89 32.67 32.28 33.24 34.20 31.44 30.44 29.05 28.18 27.13 26.31 24.08 28.51 26.29 28.63 26.67 27.25 26.81 30.02 31.44 31.19 32.26 33.02 31.71 31.21 31.17
46.97 47.64 47.90 47.59 47.41 47.89 47.47 47.13 47.85 47.34 48.36 50.16 49.20 48.56 48.67 50.21 47.84 41.65 35.70 35.62 34.70 30.05 29.82 30.40 30.23 34.70 36.71 35.61 36.33 32.73 32.23 34.79 33.70 33.78 31.98 30.78 29.09 29.05 24.76 25.70 24.92 27.75 29.97 28.29 28.46 28.23 28.98 30.91 32.02 32.58 31.75 31.12 32.39 32.95
46.74 47.42 47.63 47.27 47.70 47.44 46.86 47.38 47.64 47.40 49.94 49.07 48.29 47.85 49.15 48.65 46.69 42.24 36.87 37.81 35.03 31.48 26.90 27.68 35.45 32.61 36.54 36.33 36.40 36.02 35.01 34.88 34.27 32.85 30.68 29.10 28.88 30.03 26.50 28.38 27.90 29.76 29.61 26.89 26.07 27.67 29.48 30.30 30.76 31.91 32.12 32.27 32.23 33.05
46.76 47.26 47.06 47.41 47.12 45.97 46.28 46.93 48.12 49.94 49.41 48.43 47.86 47.95 48.51 47.33 45.50 40.61 37.90 37.73 37.58 33.97 26.95 27.26 32.02 34.88 35.49 35.32 35.48 35.73 34.95 32.77 31.17 28.68 27.40 27.62 27.44 26.94 25.00 25.56 24.43 27.94 27.28 25.49 24.96 29.73 28.78 29.38 32.30 32.48 30.53 30.41 31.80 31.20
46.76 47.00 46.98 47.12 45.98 45.45 46.15 50.66 50.62 49.94 48.85 47.86 47.72 47.88 47.48 46.69 44.40 38.40 33.68 37.21 38.93 36.70 29.48 25.90 32.47 32.63 34.69 35.25 34.52 33.62 33.57 32.02 30.69 28.24 26.58 27.59 29.46 27.38 21.96 21.44 26.47 28.93 30.50 30.94 29.36 31.34 31.62 32.81 32.75 31.64 29.73 30.63 31.14 31.36
46.68 46.80 47.02 46.74 46.33 46.54 45.52 46.33 48.97 48.79 48.15 47.53 47.23 47.35 47.49 45.44 39.37 35.22 33.27 36.20 41.36 37.03 30.12 25.09 23.45 31.11 32.94 32.70 32.45 32.42 32.54 30.86 29.76 27.98 27.09 26.60 27.05 27.83 25.76 22.46 27.64 29.70 31.78 31.89 31.55 31.17 28.91 29.90 28.79 29.65 29.42 30.41 31.68 30.52
46.63 46.85 47.14 46.80 46.37 47.09 45.71 46.15 49.25 48.02 47.37 47.06 46.62 46.85 45.33 44.25 41.23 34.80 36.27 42.29 39.37 33.23 29.40 19.08 24.88 25.87 32.02 28.45 27.98 31.83 29.27 29.36 28.98 27.70 28.03 26.61 27.52 26.85 23.26 27.54 29.23 31.41 31.44 30.68 30.13 29.81 29.77 30.06 29.17 29.14 29.60 29.44 27.80 27.22
46.60 47.34 47.24 46.23 47.09 47.05 46.27 48.80 48.18 47.58 47.06 47.54 47.14 45.93 39.45 36.90 32.87 32.57 42.27 41.29 36.78 32.43 23.30 19.16 19.03 19.28 30.24 29.86 29.82 29.66 29.87 25.98 29.17 27.19 27.17 27.87 25.64 21.44 27.12 28.39 29.26 30.25 30.15 29.89 30.15 29.62 28.79 27.50 27.70 27.70 27.38 27.27 26.06 26.25
46.96 47.21 46.78 47.08 46.42 45.78 46.09 48.60 48.36 47.59 47.16 46.94 42.14 36.38 31.48 34.75 42.22 41.24 36.01 31.14 30.89 29.19 26.91 22.24 19.96 22.89 27.43 29.95 28.82 25.98 28.93 25.54 15.26 26.57 27.82 26.12 24.95 29.62 29.13 30.57 31.27 30.93 30.80 29.89 25.93 23.97 25.40 22.76 25.47 25.04 25.68 26.80 26.74 26.58
46.96 46.61 46.56 45.45 45.23 46.97 48.48 48.30 47.63 46.91 46.32 37.12 33.95 32.04 35.97 40.48 34.95 31.94 27.93 24.71 26.39 21.91 25.79 23.55 22.38 24.71 29.08 22.45 27.51 28.62 27.81 28.27 21.35 21.25 23.03 20.86 22.71 26.45 28.68 29.04 29.76 29.42 29.24 28.93 28.34 28.09 27.87 26.61 25.37 25.19 25.43 26.60 27.48 27.34
46.62 46.58 44.32 44.23 48.75 48.24 47.94 47.50 46.76 41.52 37.90 38.17 36.53 37.37 35.51 32.33 27.82 23.75 17.92 24.37 23.86 20.04 25.55 24.82 24.90 27.32 27.69 29.69 26.58 27.34 20.97 26.53 15.10 30.40 25.79 20.39 24.42 27.57 28.11 28.04 28.40 28.38 27.77 27.61 28.05 27.52 27.80 27.81 27.03 25.98 25.70 26.04 26.65 27.34
46.51 46.31 44.47 47.74 48.11 47.81 47.34 46.84 45.40 43.81 41.06 37.30 32.88 28.96 28.55 22.04 20.49 16.74 18.70 20.79 22.81 24.68 25.20 25.87 22.91 26.87 27.88 29.11 26.02 23.27 17.63 16.77 27.84 24.47 16.92 21.23 25.69 26.89 26.78 27.18 27.46 25.22 24.26 25.71 26.66 26.83 27.07 26.53 27.30 25.96 25.12 25.71 25.98 25.81
46.41 46.56 45.80 46.68 47.53 47.17 46.91 46.11 45.14 42.49 36.94 29.64 26.69 21.26 21.56 19.23 20.68 22.89 24.30 20.84 23.91 24.04 25.01 25.59 24.42 25.52 27.49 24.36 24.59 16.35 25.80 25.83 15.66 8.44 14.73 18.42 24.43 24.99 25.35 26.29 26.40 24.96 24.60 23.05 22.44 24.55 24.74 23.86 23.36 24.54 24.96 25.08 25.23 24.78
46.34 46.06 46.21 47.18 46.86 46.75 46.16 45.77 43.36 37.03 31.63 24.11 25.96 17.16 15.61 24.56 26.10 25.18 17.70 22.95 25.50 28.21 25.94 23.64 23.14 24.87 21.08 20.83 23.88 23.00 22.02 9.35 14.73 15.31 18.51 19.72 24.43 24.35 24.42 25.49 25.06 24.21 23.97 23.42 23.43 21.13 19.39 19.96 20.70 22.37 23.75 24.25 24.24 24.77
45.80 45.98 45.78 46.84 46.54 46.05 44.88 41.43 37.60 34.23 29.63 25.42 21.26 20.81 25.72 22.00 21.57 18.70 23.33 25.60 25.22 26.62 24.60 24.24 18.45 16.77 18.18 19.50 14.59 11.06 12.38 11.17 15.84 16.81 22.32 22.84 24.16 24.09 24.42 26.13 25.97 25.04 23.74 23.92 23.98 24.44 24.80 23.60 22.91 22.49 23.35 22.58 22.46 23.34
45.49 43.71 46.38 46.12 45.75 44.27 42.18 35.66 32.37 26.13 24.01 24.25 22.60 27.82 23.52 23.10 20.60 22.10 25.31 26.17 27.59 25.22 18.40 18.42 13.24 14.37 19.92 13.38 14.30 17.09 13.73 18.36 18.84 20.65 21.02 23.78 24.14 24.58 25.13 25.52 25.61 24.99 23.64 23.04 23.00 23.26 21.97 23.44 18.12 15.58 18.89 22.84 22.66 24.36
43.20 45.49 45.98 45.66 43.60 40.01 33.44 32.00 27.56 24.44 22.10 22.53 22.79 23.85 26.82 26.74 24.85 25.63 26.39 27.55 26.33 24.16 21.72 15.75 19.50 12.19 13.57 11.49 13.29 19.15 19.31 16.18 20.38 22.41 23.94 25.33 25.42 25.01 25.29 24.21 24.83 24.31 24.07 19.06 17.79 16.61 14.68 17.46 19.44 22.17 21.06 22.85 22.59 22.16
44.79 44.90 45.21 44.59 40.37 31.80 29.25 28.60 27.68 23.16 24.38 23.29 24.86 25.17 25.70 26.37 26.01 25.33 25.91 26.14 26.39 26.45 23.09 17.40 13.44 12.94 18.26 19.07 17.72 13.18 13.21 19.75 23.34 23.54 23.49 24.41 24.65 23.91 23.05 21.45 20.47 19.38 19.34 17.87 19.97 22.85 23.01 23.18 23.68 23.74 23.28 22.26 22.06 23.26
45.85 45.35 44.40 42.90 38.83 30.09 26.04 23.21 27.49 24.59 20.61 21.32 21.66 20.76 25.68 24.30 23.67 22.40 23.55 25.61 24.75 16.71 18.21 16.19 20.54 22.34 22.95 23.06 21.74 21.55 21.58 24.52 22.96 21.59 22.40 22.44 21.93 17.83 19.59 19.89 21.48 20.57 20.20 19.26 20.95 26.53 23.49 22.72 22.75 22.96 21.43 21.35 23.06 22.55
43.58 42.60 39.93 34.89 29.92 28.35 25.73 22.83 22.79 23.33 22.01 20.56 20.33 23.38 19.69 19.35 19.43 17.09 14.73 21.04 15.73 13.61 17.81 21.04 22.77 24.43 25.15 24.86 25.24 25.76 25.64 24.54 23.07 22.77 22.01 17.95 22.16 19.32 19.08 18.83 16.49 21.67 20.60 23.38 22.75 23.75 24.98 22.53 23.50 21.77 22.49 22.82 22.26 21.90
40.68 40.32 33.84 33.80 27.44 23.99 23.02 25.29 23.20 23.62 21.26 19.60 21.01 22.68 20.40 16.41 13.00 14.88 18.13 11.90 10.44 17.83 20.49 21.94 21.24 22.56 23.43 23.62 23.52 23.77 24.82 24.52 23.39 23.28 26.86 25.87 22.15 19.10 19.81 19.43 17.28 16.77 19.87 19.76 20.52 21.65 22.34 22.50 22.80 22.56 21.73 22.07 22.93 20.54
39.07 35.81 31.83 29.52 24.19 22.29 21.70 25.86 21.88 20.48 20.55 18.24 19.87 19.06 15.40 10.92 12.10 13.64 11.34 10.04 15.39 18.01 20.64 19.88 17.12 15.29 18.93 17.46 17.15 18.40 18.17 20.14 21.89 22.13 22.12 21.97 22.30 20.45 18.77 20.67 18.90 15.87 19.05 21.29 19.14 19.28 18.87 24.68 23.42 22.44 20.52 19.20 18.55 17.70
36.61 29.40 26.75 24.54 23.18 19.96 23.00 16.29 21.29 19.69 19.88 20.03 18.78 15.88 15.32 13.95 13.85 10.14 12.94 11.39 17.04 19.12 18.73 14.71 16.13 18.29 18.31 17.97 17.26 18.52 18.32 16.83 16.09 16.08 19.54 19.08 15.48 20.77 21.50 21.13 20.70 19.30 19.38 20.73 17.74 15.21 14.57 18.51 21.50 18.02 16.90 13.79 13.80 13.17
31.23 25.44 24.62 17.42 17.34 18.22 15.76 12.38 13.24 17.88 16.53 18.06 17.21 15.42 15.25 16.05 14.50 9.58 12.19 14.34 10.44 14.18 14.39 13.95 15.15 16.71 17.47 16.22 15.60 17.68 17.58 17.41 16.44 17.30 16.69 18.47 17.24 17.20 18.67 17.74 19.08 19.25 16.03 11.64 14.65 15.74 16.45 14.86 13.94 12.95 12.83 11.17 12.01 15.04
22.59 21.23 18.95 14.60 13.97 16.55 16.20 15.92 15.51 17.30 19.18 16.51 14.21 13.79 14.76 16.63 14.11 14.26 15.48 12.70 15.66 15.01 15.40 19.62 20.12 17.35 17.02 18.29 17.92 17.77 19.47 15.98 15.59 15.64 17.34 15.65 14.64 12.93 9.22 12.62 14.20 15.30 12.95 14.22 11.29 13.87 14.15 14.52 12.45 11.18 11.33 12.03 17.26 13.74
19.91 14.47 19.48 23.70 21.74 21.14 20.05 21.39 22.46 21.96 20.44 18.89 15.30 14.93 19.48 19.18 14.67 16.52 15.85 14.23 15.94 13.57 14.39 18.71 19.77 16.74 17.35 17.17 18.26 17.81 15.79 10.34 14.82 15.71 14.30 12.89 13.18 13.18 10.12 12.41 12.74 14.28 15.19 11.00 10.37 11.34 13.01 13.27 13.49 12.66 12.32 12.79 9.80 12.44
22.38 19.41 17.24 16.98 19.39 20.38 20.33 19.77 20.79 20.45 19.00 18.93 19.61 18.59 21.01 19.23 17.82 16.43 16.92 16.43 11.78 8.21 9.33 8.87 11.64 11.42 12.32 12.72 12.33 13.97 9.26 6.34 5.92 5.38 8.74 10.24 6.93 4.27 4.55 5.87 6.53 20.35 14.94 11.36 13.39 13.24 13.62 14.31 13.74 14.80 13.24 12.12 10.78 9.34
16.93 20.99 22.44 17.67 18.97 17.98 17.54 19.99 19.92 19.70 21.27 20.84 19.20 14.39 14.24 15.13 14.92 14.47 16.19 12.60 7.79 15.27 16.84 16.80 13.27 4.70 8.71 5.97 6.21 2.95 4.36 8.21 11.83 10.38 8.33 10.57 6.87 8.17 6.21 6.81 5.88 6.95 6.68 5.72 18.23 20.23 19.26 19.54 17.90 15.65 10.31 9.34 7.70 4.89
18.76 21.25 18.86 16.59 17.62 15.88 14.46 15.66 17.56 18.72 19.48 19.31 19.20 16.56 16.99 16.56 13.77 10.81 12.21 11.81 13.83 12.96 9.03 8.43 6.97 10.35 8.45 10.19 7.81 7.89 2.52 1.80 6.35 10.13 6.67 6.87 6.30 4.32 3.77 4.30 5.86 7.70 6.01 9.61 10.58 7.85 15.96 11.09 6.31 -0.65 -0.58 -0.54 0.39 2.91
23.08 21.49 17.38 15.66 13.21 13.85 14.58 15.20 18.45 19.60 16.18 13.59 11.10 13.47 14.36 13.63 14.56 12.88 10.62 7.12 5.60 9.58 13.17 10.41 7.59 -0.67 8.30 4.20 5.30 6.55 10.11 3.42 -0.55 0.30 -0.74 -0.04 0.74 2.08 4.64 5.79 9.13 9.30 8.78 6.10 4.73 2.88 1.41 0.87 -1.65 -2.85 -1.31 -2.50 -1.49 2.85
20.56 18.95 18.47 15.94 14.97 15.88 16.50 17.60 16.79 13.55 10.22 9.62 9.15 8.67 11.16 13.75 15.79 15.64 10.16 7.92 9.35 11.99 15.39 10.00 9.55 11.42 5.34 1.48 0.64 1.82 16.55 2.64 0.13 -0.61 -1.12 1.36 3.49 7.54 10.56 12.79 11.61 8.10 7.75 3.03 1.52 0.20 -1.47 -3.67 -2.40 -0.73 0.86 -0.29 -0.24 0.09
20.13 19.70 18.85 17.50 15.85 15.41 16.50 16.64 13.05 12.26 10.77 9.78 9.22 7.08 8.59 10.92 14.94 15.73 8.87 5.94 11.42 11.23 11.81 8.65 2.22 0.67 4.20 3.14 2.18 1.37 9.16 -1.34 3.22 16.85 18.99 20.52 22.54 22.55 15.54 7.23 5.30 5.47 5.47 3.42 0.36 -1.15 -1.18 -4.32 -3.19 -1.70 1.15 0.92 1.57 1.99

GFSWCAN_sfc_wetblb_069.txt.gz
Wetbulb
46.63 46.77 47.27 47.69 47.89 48.51 48.42 48.35 48.18 47.60 48.67 48.82 50.80 50.59 49.97 49.65 49.63 42.02 35.74 37.13 34.30 28.39 29.04 31.89 33.04 32.75 32.93 32.69 31.44 32.98 33.77 34.50 33.39 29.79 29.06 27.53 25.97 27.26 24.93 26.13 25.79 26.07 23.05 23.29 23.92 21.20 19.42 30.46 31.41 28.61 29.49 30.80 31.70 31.13
46.28 46.85 47.19 47.28 47.83 48.28 47.79 48.17 47.84 47.83 48.24 49.78 50.90 50.31 49.82 49.81 47.33 42.96 36.36 37.41 37.08 31.63 29.99 32.99 32.79 33.33 33.22 32.59 32.71 31.70 31.89 32.72 33.89 30.86 29.44 28.43 27.79 25.81 25.37 23.61 26.86 25.45 27.63 26.14 26.89 26.16 29.14 29.86 29.97 31.37 31.99 31.13 30.29 29.37
46.40 46.84 47.10 47.20 48.03 47.91 48.27 48.00 47.06 47.62 48.04 51.05 50.66 49.99 49.24 49.76 46.70 41.87 35.65 34.70 34.17 30.07 29.56 31.16 30.30 34.65 36.08 34.45 35.49 32.91 31.96 34.51 33.21 32.86 31.28 29.79 28.76 28.30 24.44 25.18 23.64 26.63 29.22 27.71 27.72 27.24 27.51 29.08 30.49 31.07 30.60 30.56 31.39 31.91
46.31 46.87 46.60 47.58 47.85 47.79 47.99 47.29 47.05 47.55 47.81 50.26 49.91 48.94 49.06 49.93 46.26 41.85 36.09 36.25 34.53 31.63 27.90 28.94 35.13 33.89 35.87 35.38 35.53 35.39 34.84 34.19 33.62 32.68 29.93 29.03 28.68 28.90 25.94 27.22 26.87 29.06 29.02 26.62 25.23 25.99 27.13 30.45 29.98 30.64 31.35 31.38 31.02 31.52
46.30 46.56 46.96 47.50 47.52 47.74 46.74 46.95 47.24 47.61 47.60 49.31 48.45 47.87 49.39 48.64 45.53 39.91 37.68 37.05 36.36 34.16 27.14 27.84 31.79 35.32 35.41 35.08 34.86 35.25 34.55 32.62 30.50 28.05 26.54 27.21 27.32 26.52 23.97 25.34 24.50 27.44 27.39 25.98 26.10 28.72 28.45 28.17 31.29 31.74 30.02 29.33 30.54 29.40
46.32 46.61 46.89 47.33 47.52 46.56 46.90 47.28 50.29 49.32 49.47 47.84 48.12 48.90 47.97 46.38 44.48 38.05 33.80 36.92 37.66 36.07 30.12 25.45 31.78 31.58 33.70 34.41 33.67 32.96 32.87 31.18 29.33 28.29 25.94 26.93 28.67 26.76 22.47 21.59 25.61 27.50 29.15 29.45 28.59 29.98 29.98 30.85 31.61 30.48 28.66 29.71 30.22 30.01
46.19 46.31 46.76 47.29 47.07 46.25 46.07 47.66 49.82 49.19 48.01 48.08 48.92 48.44 47.94 45.51 39.18 34.22 32.94 36.17 40.10 36.69 30.10 25.29 24.17 30.85 31.00 31.39 31.84 31.73 31.63 29.77 29.56 28.04 26.81 25.67 26.26 27.28 25.08 22.00 26.52 28.41 29.80 30.38 30.09 30.60 28.51 28.24 28.33 30.14 28.17 29.41 31.03 29.37
46.02 46.30 46.85 47.47 47.02 46.74 45.75 46.54 48.52 47.84 47.53 47.96 47.99 46.45 45.68 44.76 41.11 34.54 36.82 42.17 38.00 31.66 30.18 21.58 26.12 26.20 31.31 28.77 28.39 31.01 28.90 28.75 28.78 27.26 27.31 26.13 26.92 26.33 22.75 26.67 27.16 30.21 29.73 28.76 28.76 28.26 28.38 30.04 29.04 27.22 27.69 28.33 26.92 26.64
45.92 46.25 46.89 47.67 46.82 47.18 46.08 48.68 48.19 47.65 47.23 47.51 46.44 45.09 39.61 35.50 33.52 33.34 42.92 40.18 36.23 32.90 22.86 21.74 20.58 21.38 30.11 28.86 29.72 29.35 29.55 24.89 28.53 26.60 26.75 27.39 25.21 20.75 26.25 26.76 28.68 29.78 29.47 29.45 29.10 28.28 27.82 26.44 25.83 25.83 24.71 25.70 24.49 25.05
45.89 46.43 47.09 47.68 47.23 47.45 46.84 48.14 47.62 47.07 47.46 46.62 41.01 35.27 31.68 34.66 42.03 41.35 34.96 30.99 30.72 29.97 28.23 22.73 21.94 26.39 27.32 27.54 26.41 25.12 27.38 24.05 14.50 26.03 27.34 25.85 24.54 29.28 28.91 29.50 30.84 30.83 30.52 29.22 25.85 23.76 25.17 22.32 24.54 23.36 23.99 24.90 24.95 25.12
46.22 46.86 47.40 47.07 47.37 47.36 46.40 47.81 47.72 47.59 45.56 37.35 33.11 30.52 34.94 40.46 34.83 30.00 24.87 24.18 24.74 22.74 27.23 24.87 25.44 26.34 29.10 23.11 23.66 27.79 19.81 22.64 13.97 19.77 22.61 18.86 22.41 25.74 28.23 28.62 29.81 29.33 28.66 27.58 26.34 27.55 27.37 25.66 24.97 24.07 24.46 25.20 25.80 26.20
46.75 47.00 47.26 47.02 47.28 47.06 46.22 47.54 47.18 42.00 39.05 37.91 36.17 37.27 35.17 31.49 28.33 21.05 15.02 21.82 22.64 21.81 26.15 25.86 25.58 27.47 28.00 29.31 26.36 26.18 20.39 20.94 14.55 27.38 24.40 16.79 22.63 27.02 27.71 27.58 27.49 27.61 27.78 27.66 27.81 26.52 25.92 27.39 25.75 25.11 24.66 24.48 24.90 26.01
46.82 46.98 46.99 46.94 44.47 44.54 47.07 47.10 46.51 44.20 41.11 37.18 33.14 27.53 27.12 23.17 16.14 13.84 16.96 15.78 16.99 25.98 26.20 25.71 22.89 26.71 27.82 29.04 26.09 23.46 19.00 17.68 28.25 23.87 16.00 19.31 24.96 26.72 27.19 27.19 26.60 24.90 25.52 25.87 25.34 25.74 26.27 25.68 26.16 24.80 23.89 24.12 23.91 23.64
46.70 46.63 44.64 43.52 45.58 47.73 47.73 46.78 45.74 42.44 36.48 29.70 26.55 21.15 18.76 12.32 17.07 17.79 20.94 24.98 26.13 25.86 25.55 25.09 25.07 25.28 26.36 22.93 23.64 14.60 25.94 25.56 17.01 11.42 13.26 17.33 24.29 26.31 25.91 25.69 25.38 24.29 24.80 22.15 21.46 23.63 23.98 22.74 22.12 23.43 23.99 23.77 23.46 23.07
46.49 44.57 44.62 45.77 47.94 47.26 46.78 45.74 43.19 36.77 31.67 26.62 24.73 20.80 15.06 22.27 27.10 24.58 24.17 23.70 25.08 29.55 26.08 23.59 23.67 24.33 21.80 20.99 23.78 24.72 21.43 9.30 13.45 14.46 17.73 19.84 24.66 25.06 23.91 24.36 24.06 23.77 23.83 23.24 22.24 20.35 17.47 17.82 18.78 20.82 22.24 22.76 22.92 23.22
45.94 44.76 42.67 47.02 47.23 46.73 45.41 41.66 37.07 33.77 28.17 23.19 20.51 19.64 25.23 23.75 22.43 18.11 17.88 21.47 23.90 25.87 24.99 24.62 20.18 18.72 18.42 19.78 15.49 11.42 11.49 9.89 15.27 16.35 21.32 21.74 24.31 23.15 23.30 24.44 24.95 24.84 23.74 23.25 23.10 23.31 23.80 22.79 21.93 20.72 21.14 20.21 20.61 21.72
45.16 40.55 43.01 46.95 46.30 44.85 42.81 35.09 33.19 26.45 23.44 21.69 22.47 27.59 23.98 23.34 23.89 24.54 25.34 25.45 26.59 24.46 19.50 20.41 15.58 16.12 20.05 13.84 14.53 17.19 14.76 17.49 18.41 19.23 21.00 23.32 24.00 23.20 23.52 25.46 25.96 25.28 23.26 22.22 21.96 22.50 21.28 22.75 15.84 14.89 17.98 20.98 21.19 22.53
40.33 44.47 46.70 46.31 43.25 40.09 33.63 32.51 28.09 24.12 20.81 24.27 24.27 23.02 26.01 24.30 22.61 24.45 25.51 26.45 25.06 23.46 21.89 17.41 20.20 14.05 13.27 12.25 13.78 19.71 20.67 16.02 18.90 21.68 22.86 24.00 24.04 24.34 25.57 24.56 24.66 23.75 23.25 18.73 16.75 15.84 13.78 15.81 18.37 22.21 21.36 22.20 20.86 19.34
44.53 46.03 45.66 44.15 40.51 33.23 31.73 29.65 27.38 22.80 23.33 25.03 26.12 25.64 25.45 25.24 25.29 25.00 25.76 26.17 25.61 25.45 22.18 16.91 15.84 13.85 17.37 18.20 18.59 15.73 15.09 19.60 23.62 24.36 23.42 24.19 23.90 23.79 22.29 20.21 19.14 17.87 17.39 16.52 18.97 22.13 21.92 22.40 22.91 23.45 23.29 21.15 20.54 21.59
46.63 45.45 44.22 42.38 38.35 30.43 27.52 25.80 27.84 24.53 22.16 24.15 23.45 23.81 23.97 22.70 23.13 22.34 23.16 24.39 23.60 16.12 18.45 16.63 20.39 21.93 22.60 22.90 22.37 22.27 21.79 24.33 22.42 21.40 22.26 22.45 21.23 16.42 18.16 18.52 19.81 19.20 18.52 16.57 18.97 25.91 21.86 22.00 22.48 22.40 20.75 20.24 21.65 21.72
44.34 42.98 42.61 35.35 30.69 29.47 26.57 22.15 21.07 23.26 23.52 23.09 20.11 21.82 17.95 17.28 18.98 18.12 15.05 20.67 15.62 11.75 16.37 19.22 21.61 23.18 24.45 23.85 24.33 25.40 25.24 24.28 23.04 22.98 22.23 17.83 21.31 18.10 17.77 17.13 14.80 20.61 19.56 21.36 20.62 21.76 22.19 20.54 21.76 21.72 21.47 21.84 20.84 21.28
41.49 41.56 33.64 33.51 27.87 25.74 23.32 25.56 23.66 24.82 22.62 21.10 19.83 18.63 14.57 15.05 13.20 10.48 15.25 13.11 10.15 17.09 18.87 20.05 19.65 21.45 22.93 23.44 23.30 23.50 24.86 23.83 22.76 23.65 25.94 25.75 21.22 18.37 18.70 18.18 16.69 15.43 16.09 13.84 17.50 18.87 19.99 21.00 21.59 21.78 20.78 20.84 21.60 19.19
39.52 37.04 31.67 29.59 24.84 23.79 22.07 25.62 23.08 22.36 22.65 19.34 15.23 13.68 9.67 9.09 11.19 12.69 13.26 12.06 15.28 17.71 19.61 18.54 15.55 14.15 18.33 16.00 16.56 17.57 17.75 19.91 21.89 22.03 21.93 21.54 21.59 19.33 17.25 17.68 16.75 11.05 14.85 16.87 16.31 16.35 14.62 22.69 20.91 20.77 19.19 17.73 17.14 16.20
37.20 30.53 27.23 24.26 23.50 19.52 22.72 19.84 22.67 22.08 19.51 15.88 11.38 10.40 10.97 10.57 12.07 11.58 14.54 13.53 17.47 19.12 19.01 15.25 16.10 18.62 17.87 17.75 17.19 17.71 17.35 15.72 15.52 16.00 19.42 18.58 14.93 19.64 19.93 18.90 18.78 16.83 16.08 17.56 13.80 12.90 13.77 16.72 19.78 16.63 15.37 12.03 11.72 11.47
30.59 25.43 25.05 18.22 18.90 16.03 14.56 13.26 12.20 16.51 13.17 12.46 12.69 13.65 15.23 15.92 11.81 11.48 13.83 16.34 13.56 16.57 17.31 14.17 14.93 16.53 18.24 15.89 15.09 16.54 16.07 17.30 17.21 17.22 14.83 15.73 15.80 15.56 15.13 15.28 16.93 16.21 14.21 11.89 13.45 14.28 14.20 13.87 12.63 11.70 11.56 10.03 11.35 15.50
23.07 21.90 20.55 16.60 13.82 16.21 15.75 13.73 13.38 14.83 17.53 15.10 15.26 14.92 14.94 15.57 14.91 16.80 17.43 16.18 17.91 17.80 17.31 20.87 21.12 17.62 17.62 17.54 17.79 17.61 18.82 15.60 14.85 15.48 13.66 13.65 13.29 11.37 6.27 8.18 9.24 12.65 11.66 9.76 8.95 9.83 10.91 11.98 11.92 10.19 10.70 11.69 16.68 12.76
21.01 18.53 20.73 23.81 21.75 20.55 19.33 20.63 22.15 22.74 21.97 19.14 15.10 14.42 16.42 15.91 16.85 18.44 16.70 15.74 17.31 16.28 16.34 20.29 21.57 20.76 20.46 18.49 17.48 16.70 13.50 9.49 12.74 12.81 12.41 10.59 10.88 11.28 9.42 9.20 6.94 11.51 13.72 10.73 11.68 11.97 12.29 12.98 12.89 12.35 12.92 11.26 8.19 9.20
22.06 20.00 18.04 17.93 18.41 18.88 19.76 19.79 21.12 20.37 19.13 19.86 22.40 22.39 23.91 24.17 23.28 19.23 16.93 13.49 9.68 8.26 12.49 12.94 11.06 11.41 14.57 12.22 11.58 15.24 9.79 4.38 4.28 6.03 7.82 8.91 4.90 1.12 2.18 3.50 3.92 19.13 13.37 9.92 16.97 13.79 16.61 13.40 13.46 14.04 11.22 9.38 8.15 6.21
18.45 21.16 22.77 18.10 19.05 18.13 17.01 20.02 20.24 20.49 21.52 21.36 21.27 18.98 19.01 17.06 16.17 18.24 16.91 11.25 5.91 17.45 19.03 16.94 10.63 6.13 9.33 7.28 5.65 1.96 3.19 8.58 12.24 9.98 8.09 7.82 4.60 7.07 1.16 1.87 1.72 2.80 2.06 3.41 16.85 18.75 16.37 17.93 16.04 15.13 6.00 4.45 4.27 1.70
18.77 21.65 18.34 16.48 17.76 15.40 14.25 15.55 17.43 18.96 20.13 19.94 20.31 18.15 17.77 17.17 15.13 11.41 11.82 9.99 14.43 16.46 11.94 11.62 12.09 11.84 11.23 12.71 8.30 8.29 1.99 0.81 5.81 11.17 7.95 6.37 6.19 2.55 -1.25 0.25 3.08 4.92 3.34 3.61 5.10 3.99 15.79 9.68 5.73 -1.08 -0.75 -1.17 -0.66 1.96
21.38 19.05 16.13 15.26 13.36 13.85 15.07 16.08 19.15 20.31 18.02 17.52 17.72 18.26 14.82 11.96 14.89 9.90 8.31 4.98 6.11 9.51 12.53 9.18 5.48 1.91 10.61 6.83 6.37 7.84 10.29 3.08 -0.89 0.68 -0.31 -0.42 -1.52 -1.42 0.58 2.27 5.67 5.26 2.35 1.59 1.50 0.74 -0.93 -0.44 -2.70 -2.81 -1.26 -1.97 -0.67 3.20
19.28 17.58 17.35 15.46 14.41 16.28 17.71 18.52 17.54 16.95 15.93 17.25 13.90 11.81 11.07 12.75 12.94 12.97 8.71 7.29 6.73 9.07 14.89 16.25 15.66 14.10 5.60 0.60 0.50 2.84 17.76 5.11 0.83 0.21 -0.85 0.86 1.25 3.86 5.40 8.80 3.57 2.57 3.78 3.36 0.31 -0.95 -2.12 -4.06 -1.24 -1.38 0.05 -0.36 0.22 1.42
19.60 19.73 18.68 17.37 16.38 16.53 17.38 19.62 17.65 16.27 14.05 10.29 7.79 6.50 6.05 11.41 14.45 14.92 6.74 3.68 11.51 16.36 17.55 14.33 5.23 4.42 8.18 6.10 5.15 4.23 9.15 -1.28 3.69 15.99 18.89 19.68 22.15 19.42 17.08 6.61 3.33 3.41 4.06 3.30 0.40 -1.33 -2.85 -5.28 -4.23 -3.72 -0.43 0.17 0.84 2.96